Wetterdaten: Samstag, 25.04.2026
Datum Zeit Temp. Aussen Temp. o. S. Temp +5cm Feuchte Auss Luftdruck Regen Sonnenschein Solar Windböen Empfang
25.04.2026 00:00 10,5 °C 8,9 °C 6,1 °C 81 % 1021,8 hPa 0,0 l/m² 0 min 0 W/m² 6,4 km/h (2 Bft) 97,87 %
25.04.2026 00:02 10,4 °C 9,4 °C 6,1 °C 81 % 1021,8 hPa 0,0 l/m² 0 min 0 W/m² 3,2 km/h (1 Bft) 100,00 %
25.04.2026 00:04 10,4 °C 8,9 °C 6,1 °C 81 % 1021,7 hPa 0,0 l/m² 0 min 0 W/m² 3,2 km/h (1 Bft) 100,00 %
25.04.2026 00:07 10,4 °C 8,9 °C 6,1 °C 82 % 1021,7 hPa 0,0 l/m² 0 min 0 W/m² 6,4 km/h (2 Bft) 100,00 %
25.04.2026 00:08 10,4 °C 8,9 °C 6,1 °C 82 % 1021,7 hPa 0,0 l/m² 0 min 0 W/m² 6,4 km/h (2 Bft) 95,83 %
25.04.2026 00:10 10,3 °C 8,9 °C 6,1 °C 82 % 1021,7 hPa 0,0 l/m² 0 min 0 W/m² 0,0 km/h (0 Bft) 100,00 %
25.04.2026 00:12 10,3 °C 8,9 °C 6,1 °C 82 % 1021,7 hPa 0,0 l/m² 0 min 0 W/m² 3,2 km/h (1 Bft) 95,74 %
25.04.2026 00:14 10,3 °C 8,9 °C 6,1 °C 82 % 1021,7 hPa 0,0 l/m² 0 min 0 W/m² 3,2 km/h (1 Bft) 97,87 %
25.04.2026 00:16 10,2 °C 8,9 °C 5,6 °C 82 % 1021,7 hPa 0,0 l/m² 0 min 0 W/m² 0,0 km/h (0 Bft) 97,87 %
25.04.2026 00:18 10,2 °C 8,9 °C 5,6 °C 83 % 1021,7 hPa 0,0 l/m² 0 min 0 W/m² 6,4 km/h (2 Bft) 97,87 %
25.04.2026 00:20 10,2 °C 8,9 °C 5,6 °C 83 % 1021,8 hPa 0,0 l/m² 0 min 0 W/m² 9,7 km/h (2 Bft) 97,83 %
25.04.2026 00:22 10,1 °C 8,9 °C 5,6 °C 83 % 1021,8 hPa 0,0 l/m² 0 min 0 W/m² 6,4 km/h (2 Bft) 97,87 %
25.04.2026 00:24 10,1 °C 8,9 °C 5,6 °C 83 % 1021,9 hPa 0,0 l/m² 0 min 0 W/m² 3,2 km/h (1 Bft) 95,74 %
25.04.2026 00:26 10,1 °C 8,9 °C 5,6 °C 83 % 1021,9 hPa 0,0 l/m² 0 min 0 W/m² 0,0 km/h (0 Bft) 95,74 %
25.04.2026 00:28 10,1 °C 8,9 °C 5,6 °C 83 % 1021,8 hPa 0,0 l/m² 0 min 0 W/m² 6,4 km/h (2 Bft) 97,87 %
25.04.2026 00:30 10,0 °C 8,9 °C 5,6 °C 83 % 1021,8 hPa 0,0 l/m² 0 min 0 W/m² 0,0 km/h (0 Bft) 98,00 %
25.04.2026 00:32 10,0 °C 8,9 °C 5,6 °C 84 % 1021,8 hPa 0,0 l/m² 0 min 0 W/m² 6,4 km/h (2 Bft) 95,74 %
25.04.2026 00:34 9,9 °C 8,9 °C 5,6 °C 84 % 1021,9 hPa 0,0 l/m² 0 min 0 W/m² 3,2 km/h (1 Bft) 95,92 %
25.04.2026 00:36 9,9 °C 8,3 °C 5,6 °C 84 % 1021,8 hPa 0,0 l/m² 0 min 0 W/m² 3,2 km/h (1 Bft) 97,87 %
25.04.2026 00:38 9,9 °C 8,3 °C 5,6 °C 84 % 1021,8 hPa 0,0 l/m² 0 min 0 W/m² 9,7 km/h (2 Bft) 97,87 %
25.04.2026 00:40 9,8 °C 8,3 °C 5,6 °C 84 % 1021,8 hPa 0,0 l/m² 0 min 0 W/m² 6,4 km/h (2 Bft) 97,87 %
25.04.2026 00:42 9,8 °C 8,3 °C 5,6 °C 84 % 1021,8 hPa 0,0 l/m² 0 min 0 W/m² 6,4 km/h (2 Bft) 97,78 %
25.04.2026 00:44 9,8 °C 8,3 °C 5,6 °C 84 % 1021,7 hPa 0,0 l/m² 0 min 0 W/m² 3,2 km/h (1 Bft) 96,00 %
25.04.2026 00:46 9,7 °C 8,3 °C 5,6 °C 84 % 1021,8 hPa 0,0 l/m² 0 min 0 W/m² 6,4 km/h (2 Bft) 98,00 %
25.04.2026 00:48 9,7 °C 8,3 °C 5,6 °C 85 % 1021,8 hPa 0,0 l/m² 0 min 0 W/m² 6,4 km/h (2 Bft) 97,37 %
25.04.2026 00:50 9,7 °C 8,3 °C 5,6 °C 84 % 1021,8 hPa 0,0 l/m² 0 min 0 W/m² 3,2 km/h (1 Bft) 95,74 %
25.04.2026 00:52 9,6 °C 8,3 °C 5,6 °C 85 % 1021,8 hPa 0,0 l/m² 0 min 0 W/m² 3,2 km/h (1 Bft) 95,65 %
25.04.2026 00:54 9,6 °C 8,3 °C 5,0 °C 85 % 1021,7 hPa 0,0 l/m² 0 min 0 W/m² 3,2 km/h (1 Bft) 95,74 %
25.04.2026 00:56 9,6 °C 8,3 °C 5,0 °C 85 % 1021,8 hPa 0,0 l/m² 0 min 0 W/m² 0,0 km/h (0 Bft) 97,87 %
25.04.2026 00:58 9,5 °C 7,8 °C 5,0 °C 85 % 1021,7 hPa 0,0 l/m² 0 min 0 W/m² 3,2 km/h (1 Bft) 97,87 %
25.04.2026 01:00 9,5 °C 7,8 °C 5,0 °C 85 % 1021,7 hPa 0,0 l/m² 0 min 0 W/m² 3,2 km/h (1 Bft) 95,74 %
25.04.2026 01:02 9,4 °C 7,8 °C 5,0 °C 85 % 1021,8 hPa 0,0 l/m² 0 min 0 W/m² 3,2 km/h (1 Bft) 98,00 %
25.04.2026 01:04 9,4 °C 7,8 °C 5,0 °C 85 % 1021,7 hPa 0,0 l/m² 0 min 0 W/m² 0,0 km/h (0 Bft) 97,87 %
25.04.2026 01:06 9,4 °C 7,8 °C 5,0 °C 85 % 1021,7 hPa 0,0 l/m² 0 min 0 W/m² 0,0 km/h (0 Bft) 97,87 %
25.04.2026 01:08 9,3 °C 7,8 °C 5,0 °C 86 % 1021,8 hPa 0,0 l/m² 0 min 0 W/m² 0,0 km/h (0 Bft) 97,83 %
25.04.2026 01:10 9,3 °C 7,8 °C 5,0 °C 86 % 1021,8 hPa 0,0 l/m² 0 min 0 W/m² 3,2 km/h (1 Bft) 97,87 %
25.04.2026 01:12 9,3 °C 7,8 °C 5,0 °C 86 % 1021,7 hPa 0,0 l/m² 0 min 0 W/m² 0,0 km/h (0 Bft) 94,00 %
25.04.2026 01:14 9,3 °C 7,8 °C 4,4 °C 86 % 1021,7 hPa 0,0 l/m² 0 min 0 W/m² 3,2 km/h (1 Bft) 95,74 %
25.04.2026 01:16 9,2 °C 7,8 °C 5,0 °C 86 % 1021,8 hPa 0,0 l/m² 0 min 0 W/m² 3,2 km/h (1 Bft) 100,00 %
25.04.2026 01:18 9,2 °C 7,8 °C 4,4 °C 86 % 1021,7 hPa 0,0 l/m² 0 min 0 W/m² 0,0 km/h (0 Bft) 100,00 %
25.04.2026 01:20 9,2 °C 7,8 °C 4,4 °C 86 % 1021,7 hPa 0,0 l/m² 0 min 0 W/m² 0,0 km/h (0 Bft) 100,00 %
25.04.2026 01:22 9,1 °C 7,2 °C 4,4 °C 86 % 1021,7 hPa 0,0 l/m² 0 min 0 W/m² 0,0 km/h (0 Bft) 97,87 %
25.04.2026 01:24 9,1 °C 7,2 °C 4,4 °C 86 % 1021,6 hPa 0,0 l/m² 0 min 0 W/m² 0,0 km/h (0 Bft) 100,00 %
25.04.2026 01:26 9,1 °C 7,2 °C 4,4 °C 86 % 1021,7 hPa 0,0 l/m² 0 min 0 W/m² 0,0 km/h (0 Bft) 100,00 %
25.04.2026 01:28 9,1 °C 7,2 °C 4,4 °C 86 % 1021,8 hPa 0,0 l/m² 0 min 0 W/m² 3,2 km/h (1 Bft) 98,04 %
25.04.2026 01:30 9,0 °C 7,2 °C 4,4 °C 86 % 1021,7 hPa 0,0 l/m² 0 min 0 W/m² 0,0 km/h (0 Bft) 100,00 %
25.04.2026 01:32 8,9 °C 7,2 °C 4,4 °C 86 % 1021,7 hPa 0,0 l/m² 0 min 0 W/m² 0,0 km/h (0 Bft) 97,87 %
25.04.2026 01:34 8,9 °C 7,2 °C 4,4 °C 86 % 1021,7 hPa 0,0 l/m² 0 min 0 W/m² 0,0 km/h (0 Bft) 100,00 %
25.04.2026 01:36 8,9 °C 7,2 °C 4,4 °C 86 % 1021,7 hPa 0,0 l/m² 0 min 0 W/m² 0,0 km/h (0 Bft) 100,00 %
25.04.2026 01:38 8,8 °C 7,2 °C 4,4 °C 86 % 1021,6 hPa 0,0 l/m² 0 min 0 W/m² 0,0 km/h (0 Bft) 100,00 %
25.04.2026 01:40 8,8 °C 7,2 °C 4,4 °C 86 % 1021,6 hPa 0,0 l/m² 0 min 0 W/m² 0,0 km/h (0 Bft) 97,83 %
25.04.2026 01:42 8,8 °C 7,2 °C 3,9 °C 86 % 1021,6 hPa 0,0 l/m² 0 min 0 W/m² 0,0 km/h (0 Bft) 100,00 %
25.04.2026 01:44 8,8 °C 7,2 °C 4,4 °C 86 % 1021,6 hPa 0,0 l/m² 0 min 0 W/m² 0,0 km/h (0 Bft) 100,00 %
25.04.2026 01:46 8,7 °C 7,2 °C 4,4 °C 87 % 1021,5 hPa 0,0 l/m² 0 min 0 W/m² 3,2 km/h (1 Bft) 96,55 %
25.04.2026 01:48 8,7 °C 7,2 °C 4,4 °C 87 % 1021,5 hPa 0,0 l/m² 0 min 0 W/m² 0,0 km/h (0 Bft) 100,00 %
25.04.2026 01:50 8,7 °C 7,2 °C 3,9 °C 87 % 1021,5 hPa 0,0 l/m² 0 min 0 W/m² 0,0 km/h (0 Bft) 97,87 %
25.04.2026 01:52 8,6 °C 6,7 °C 3,9 °C 87 % 1021,5 hPa 0,0 l/m² 0 min 0 W/m² 0,0 km/h (0 Bft) 100,00 %
25.04.2026 01:54 8,6 °C 6,7 °C 3,9 °C 87 % 1021,5 hPa 0,0 l/m² 0 min 0 W/m² 3,2 km/h (1 Bft) 100,00 %
25.04.2026 01:56 8,6 °C 6,7 °C 3,9 °C 87 % 1021,4 hPa 0,0 l/m² 0 min 0 W/m² 0,0 km/h (0 Bft) 100,00 %
25.04.2026 01:58 8,6 °C 6,7 °C 3,9 °C 87 % 1021,4 hPa 0,0 l/m² 0 min 0 W/m² 0,0 km/h (0 Bft) 100,00 %
25.04.2026 02:00 8,5 °C 6,7 °C 3,9 °C 87 % 1021,4 hPa 0,0 l/m² 0 min 0 W/m² 0,0 km/h (0 Bft) 100,00 %
25.04.2026 02:02 8,5 °C 6,7 °C 3,9 °C 87 % 1021,4 hPa 0,0 l/m² 0 min 0 W/m² 0,0 km/h (0 Bft) 100,00 %
25.04.2026 02:04 8,4 °C 6,7 °C 3,9 °C 87 % 1021,4 hPa 0,0 l/m² 0 min 0 W/m² 0,0 km/h (0 Bft) 97,87 %
25.04.2026 02:06 8,4 °C 6,7 °C 3,9 °C 87 % 1021,3 hPa 0,0 l/m² 0 min 0 W/m² 0,0 km/h (0 Bft) 97,87 %
25.04.2026 02:08 8,4 °C 6,7 °C 3,9 °C 87 % 1021,3 hPa 0,0 l/m² 0 min 0 W/m² 0,0 km/h (0 Bft) 97,56 %
25.04.2026 02:10 8,3 °C 6,7 °C 3,9 °C 87 % 1021,3 hPa 0,0 l/m² 0 min 0 W/m² 3,2 km/h (1 Bft) 100,00 %
25.04.2026 02:12 8,3 °C 6,7 °C 3,9 °C 87 % 1021,3 hPa 0,0 l/m² 0 min 0 W/m² 0,0 km/h (0 Bft) 100,00 %
25.04.2026 02:14 8,3 °C 6,7 °C 3,9 °C 88 % 1021,3 hPa 0,0 l/m² 0 min 0 W/m² 3,2 km/h (1 Bft) 97,92 %
25.04.2026 02:16 8,3 °C 6,7 °C 3,9 °C 88 % 1021,3 hPa 0,0 l/m² 0 min 0 W/m² 3,2 km/h (1 Bft) 97,83 %
25.04.2026 02:18 8,2 °C 6,7 °C 3,9 °C 88 % 1021,3 hPa 0,0 l/m² 0 min 0 W/m² 6,4 km/h (2 Bft) 98,00 %
25.04.2026 02:20 8,2 °C 6,7 °C 3,9 °C 88 % 1021,3 hPa 0,0 l/m² 0 min 0 W/m² 3,2 km/h (1 Bft) 95,74 %
25.04.2026 02:22 8,2 °C 6,7 °C 3,9 °C 88 % 1021,3 hPa 0,0 l/m² 0 min 0 W/m² 0,0 km/h (0 Bft) 47,22 %
25.04.2026 02:24 8,1 °C 6,7 °C 3,9 °C 88 % 1021,3 hPa 0,0 l/m² 0 min 0 W/m² 0,0 km/h (0 Bft) 96,00 %
25.04.2026 02:26 8,1 °C 6,7 °C 3,9 °C 88 % 1021,3 hPa 0,0 l/m² 0 min 0 W/m² 0,0 km/h (0 Bft) 93,62 %
25.04.2026 02:28 8,1 °C 6,7 °C 3,9 °C 88 % 1021,3 hPa 0,0 l/m² 0 min 0 W/m² 0,0 km/h (0 Bft) 93,88 %
25.04.2026 02:30 8,1 °C 6,7 °C 3,9 °C 88 % 1021,3 hPa 0,0 l/m² 0 min 0 W/m² 0,0 km/h (0 Bft) 95,74 %
25.04.2026 02:32 8,0 °C 6,7 °C 3,9 °C 88 % 1021,3 hPa 0,0 l/m² 0 min 0 W/m² 0,0 km/h (0 Bft) 95,74 %
25.04.2026 02:34 8,0 °C 6,7 °C 3,3 °C 88 % 1021,3 hPa 0,0 l/m² 0 min 0 W/m² 3,2 km/h (1 Bft) 93,62 %
25.04.2026 02:36 7,9 °C 6,7 °C 3,3 °C 89 % 1021,3 hPa 0,0 l/m² 0 min 0 W/m² 3,2 km/h (1 Bft) 93,62 %
25.04.2026 02:38 7,9 °C 6,7 °C 3,3 °C 89 % 1021,3 hPa 0,0 l/m² 0 min 0 W/m² 3,2 km/h (1 Bft) 95,74 %
25.04.2026 02:40 7,8 °C 6,7 °C 3,3 °C 89 % 1021,2 hPa 0,0 l/m² 0 min 0 W/m² 0,0 km/h (0 Bft) 95,74 %
25.04.2026 02:42 7,8 °C 6,7 °C 3,3 °C 89 % 1021,2 hPa 0,0 l/m² 0 min 0 W/m² 0,0 km/h (0 Bft) 94,74 %
25.04.2026 02:44 7,7 °C 6,7 °C 3,9 °C 89 % 1021,2 hPa 0,0 l/m² 0 min 0 W/m² 0,0 km/h (0 Bft) 92,00 %
25.04.2026 02:46 7,7 °C 6,1 °C 3,9 °C 89 % 1021,3 hPa 0,0 l/m² 0 min 0 W/m² 0,0 km/h (0 Bft) 93,48 %
25.04.2026 02:48 7,7 °C 6,1 °C 3,3 °C 89 % 1021,2 hPa 0,0 l/m² 0 min 0 W/m² 0,0 km/h (0 Bft) 95,74 %
25.04.2026 02:50 7,6 °C 6,1 °C 3,3 °C 89 % 1021,2 hPa 0,0 l/m² 0 min 0 W/m² 0,0 km/h (0 Bft) 97,87 %
25.04.2026 02:52 7,6 °C 6,1 °C 3,3 °C 89 % 1021,2 hPa 0,0 l/m² 0 min 0 W/m² 0,0 km/h (0 Bft) 97,87 %
25.04.2026 02:54 7,6 °C 6,1 °C 3,3 °C 89 % 1021,2 hPa 0,0 l/m² 0 min 0 W/m² 3,2 km/h (1 Bft) 98,00 %
25.04.2026 02:56 7,5 °C 6,1 °C 3,3 °C 89 % 1021,2 hPa 0,0 l/m² 0 min 0 W/m² 3,2 km/h (1 Bft) 95,74 %
25.04.2026 02:58 7,5 °C 6,1 °C 2,8 °C 89 % 1021,2 hPa 0,0 l/m² 0 min 0 W/m² 6,4 km/h (2 Bft) 97,87 %
25.04.2026 03:00 7,4 °C 5,6 °C 2,8 °C 89 % 1021,2 hPa 0,0 l/m² 0 min 0 W/m² 3,2 km/h (1 Bft) 95,65 %
25.04.2026 03:02 7,4 °C 5,6 °C 2,8 °C 89 % 1021,1 hPa 0,0 l/m² 0 min 0 W/m² 0,0 km/h (0 Bft) 100,00 %
25.04.2026 03:04 7,3 °C 5,6 °C 2,8 °C 89 % 1021,1 hPa 0,0 l/m² 0 min 0 W/m² 6,4 km/h (2 Bft) 97,87 %
25.04.2026 03:06 7,3 °C 5,6 °C 2,8 °C 89 % 1021,1 hPa 0,0 l/m² 0 min 0 W/m² 3,2 km/h (1 Bft) 98,00 %
25.04.2026 03:08 7,2 °C 5,6 °C 2,2 °C 89 % 1021,1 hPa 0,0 l/m² 0 min 0 W/m² 3,2 km/h (1 Bft) 97,87 %
25.04.2026 03:10 7,1 °C 5,6 °C 2,2 °C 89 % 1021,2 hPa 0,0 l/m² 0 min 0 W/m² 3,2 km/h (1 Bft) 97,87 %
25.04.2026 03:12 7,1 °C 5,6 °C 2,2 °C 89 % 1021,1 hPa 0,0 l/m² 0 min 0 W/m² 0,0 km/h (0 Bft) 97,87 %
25.04.2026 03:14 7,0 °C 5,6 °C 2,2 °C 89 % 1021,1 hPa 0,0 l/m² 0 min 0 W/m² 6,4 km/h (2 Bft) 97,87 %
25.04.2026 03:16 6,9 °C 5,6 °C 2,2 °C 89 % 1021,1 hPa 0,0 l/m² 0 min 0 W/m² 3,2 km/h (1 Bft) 95,65 %
25.04.2026 03:18 6,8 °C 5,6 °C 2,2 °C 89 % 1021,1 hPa 0,0 l/m² 0 min 0 W/m² 3,2 km/h (1 Bft) 97,92 %
25.04.2026 03:20 6,8 °C 5,6 °C 2,2 °C 89 % 1021,1 hPa 0,0 l/m² 0 min 0 W/m² 3,2 km/h (1 Bft) 94,29 %
25.04.2026 03:22 6,8 °C 5,0 °C 2,2 °C 90 % 1021,0 hPa 0,0 l/m² 0 min 0 W/m² 3,2 km/h (1 Bft) 98,28 %
25.04.2026 03:24 6,7 °C 5,0 °C 2,2 °C 90 % 1021,0 hPa 0,0 l/m² 0 min 0 W/m² 3,2 km/h (1 Bft) 95,74 %
25.04.2026 03:26 6,7 °C 5,0 °C 2,2 °C 90 % 1021,0 hPa 0,0 l/m² 0 min 0 W/m² 3,2 km/h (1 Bft) 97,87 %
25.04.2026 03:28 6,6 °C 5,0 °C 2,2 °C 90 % 1021,0 hPa 0,0 l/m² 0 min 0 W/m² 0,0 km/h (0 Bft) 97,87 %
25.04.2026 03:30 6,6 °C 5,0 °C 2,2 °C 90 % 1021,1 hPa 0,0 l/m² 0 min 0 W/m² 0,0 km/h (0 Bft) 97,62 %
25.04.2026 03:32 6,6 °C 5,6 °C 2,2 °C 90 % 1021,1 hPa 0,0 l/m² 0 min 0 W/m² 0,0 km/h (0 Bft) 95,74 %
25.04.2026 03:34 6,6 °C 5,6 °C 2,2 °C 90 % 1021,1 hPa 0,0 l/m² 0 min 0 W/m² 0,0 km/h (0 Bft) 95,74 %
25.04.2026 03:36 6,6 °C 5,6 °C 2,2 °C 90 % 1021,1 hPa 0,0 l/m² 0 min 0 W/m² 0,0 km/h (0 Bft) 97,83 %
25.04.2026 03:38 6,6 °C 5,6 °C 2,2 °C 90 % 1021,1 hPa 0,0 l/m² 0 min 0 W/m² 3,2 km/h (1 Bft) 97,87 %
25.04.2026 03:40 6,5 °C 5,6 °C 2,2 °C 90 % 1021,0 hPa 0,0 l/m² 0 min 0 W/m² 0,0 km/h (0 Bft) 97,87 %
25.04.2026 03:42 6,5 °C 5,6 °C 2,2 °C 90 % 1021,0 hPa 0,0 l/m² 0 min 0 W/m² 0,0 km/h (0 Bft) 97,87 %
25.04.2026 03:44 6,5 °C 5,0 °C 2,2 °C 91 % 1020,9 hPa 0,0 l/m² 0 min 0 W/m² 0,0 km/h (0 Bft) 97,87 %
25.04.2026 03:46 6,5 °C 5,0 °C 2,2 °C 91 % 1020,9 hPa 0,0 l/m² 0 min 0 W/m² 0,0 km/h (0 Bft) 95,74 %
25.04.2026 03:48 6,4 °C 5,0 °C 2,2 °C 91 % 1020,9 hPa 0,0 l/m² 0 min 0 W/m² 0,0 km/h (0 Bft) 97,62 %
25.04.2026 03:50 6,4 °C 5,0 °C 2,2 °C 91 % 1020,9 hPa 0,0 l/m² 0 min 0 W/m² 0,0 km/h (0 Bft) 97,87 %
25.04.2026 03:52 6,4 °C 5,0 °C 2,2 °C 91 % 1021,0 hPa 0,0 l/m² 0 min 0 W/m² 3,2 km/h (1 Bft) 100,00 %
25.04.2026 03:54 6,4 °C 5,0 °C 2,2 °C 91 % 1021,0 hPa 0,0 l/m² 0 min 0 W/m² 0,0 km/h (0 Bft) 93,62 %
25.04.2026 03:56 6,4 °C 5,0 °C 2,2 °C 91 % 1020,9 hPa 0,0 l/m² 0 min 0 W/m² 3,2 km/h (1 Bft) 97,83 %
25.04.2026 03:58 6,4 °C 5,0 °C 2,2 °C 91 % 1021,0 hPa 0,0 l/m² 0 min 0 W/m² 3,2 km/h (1 Bft) 97,87 %
25.04.2026 04:00 6,4 °C 5,0 °C 2,2 °C 91 % 1021,0 hPa 0,0 l/m² 0 min 0 W/m² 0,0 km/h (0 Bft) 97,87 %
25.04.2026 04:02 6,3 °C 5,0 °C 2,2 °C 91 % 1020,9 hPa 0,0 l/m² 0 min 0 W/m² 6,4 km/h (2 Bft) 95,74 %
25.04.2026 04:04 6,3 °C 5,0 °C 2,2 °C 91 % 1020,9 hPa 0,0 l/m² 0 min 0 W/m² 3,2 km/h (1 Bft) 95,74 %
25.04.2026 04:06 6,3 °C 5,0 °C 2,2 °C 91 % 1020,9 hPa 0,0 l/m² 0 min 0 W/m² 3,2 km/h (1 Bft) 96,55 %
25.04.2026 04:08 6,3 °C 5,0 °C 2,2 °C 91 % 1020,9 hPa 0,0 l/m² 0 min 0 W/m² 3,2 km/h (1 Bft) 100,00 %
25.04.2026 04:10 6,2 °C 5,0 °C 2,2 °C 91 % 1021,0 hPa 0,0 l/m² 0 min 0 W/m² 6,4 km/h (2 Bft) 95,74 %
25.04.2026 04:12 6,2 °C 5,0 °C 2,2 °C 92 % 1020,9 hPa 0,0 l/m² 0 min 0 W/m² 3,2 km/h (1 Bft) 95,65 %
25.04.2026 04:14 6,2 °C 5,0 °C 2,2 °C 92 % 1020,9 hPa 0,0 l/m² 0 min 0 W/m² 0,0 km/h (0 Bft) 93,62 %
25.04.2026 04:16 6,2 °C 5,0 °C 2,2 °C 92 % 1020,9 hPa 0,0 l/m² 0 min 0 W/m² 6,4 km/h (2 Bft) 91,49 %
25.04.2026 04:18 6,2 °C 5,0 °C 2,2 °C 92 % 1021,0 hPa 0,0 l/m² 0 min 0 W/m² 3,2 km/h (1 Bft) 96,00 %
25.04.2026 04:20 6,2 °C 5,0 °C 2,2 °C 92 % 1020,9 hPa 0,0 l/m² 0 min 0 W/m² 0,0 km/h (0 Bft) 100,00 %
25.04.2026 04:22 6,1 °C 5,0 °C 2,2 °C 92 % 1020,9 hPa 0,0 l/m² 0 min 0 W/m² 6,4 km/h (2 Bft) 97,87 %
25.04.2026 04:24 6,1 °C 5,0 °C 2,2 °C 92 % 1020,9 hPa 0,0 l/m² 0 min 0 W/m² 3,2 km/h (1 Bft) 97,87 %
25.04.2026 04:26 6,1 °C 5,0 °C 2,2 °C 92 % 1020,9 hPa 0,0 l/m² 0 min 0 W/m² 3,2 km/h (1 Bft) 97,87 %
25.04.2026 04:28 6,1 °C 5,0 °C 2,2 °C 92 % 1020,9 hPa 0,0 l/m² 0 min 0 W/m² 0,0 km/h (0 Bft) 97,83 %
25.04.2026 04:30 6,1 °C 5,0 °C 1,7 °C 92 % 1020,9 hPa 0,0 l/m² 0 min 0 W/m² 0,0 km/h (0 Bft) 54,35 %
25.04.2026 04:32 6,1 °C 5,0 °C 1,7 °C 92 % 1020,9 hPa 0,0 l/m² 0 min 0 W/m² 0,0 km/h (0 Bft) 97,78 %
25.04.2026 04:34 6,0 °C 5,0 °C 1,7 °C 92 % 1020,8 hPa 0,0 l/m² 0 min 0 W/m² 3,2 km/h (1 Bft) 97,37 %
25.04.2026 04:36 6,0 °C 5,0 °C 1,7 °C 92 % 1020,8 hPa 0,0 l/m² 0 min 0 W/m² 3,2 km/h (1 Bft) 97,87 %
25.04.2026 04:38 5,9 °C 5,0 °C 1,7 °C 92 % 1020,8 hPa 0,0 l/m² 0 min 0 W/m² 3,2 km/h (1 Bft) 98,04 %
25.04.2026 04:40 5,9 °C 5,0 °C 2,2 °C 92 % 1020,8 hPa 0,0 l/m² 0 min 0 W/m² 3,2 km/h (1 Bft) 97,87 %
25.04.2026 04:42 5,9 °C 4,4 °C 1,7 °C 92 % 1020,8 hPa 0,0 l/m² 0 min 0 W/m² 3,2 km/h (1 Bft) 97,87 %
25.04.2026 04:44 5,9 °C 4,4 °C 1,7 °C 92 % 1020,8 hPa 0,0 l/m² 0 min 0 W/m² 0,0 km/h (0 Bft) 95,74 %
25.04.2026 04:46 5,8 °C 4,4 °C 1,7 °C 92 % 1020,8 hPa 0,0 l/m² 0 min 0 W/m² 3,2 km/h (1 Bft) 100,00 %
25.04.2026 04:48 5,8 °C 4,4 °C 1,7 °C 92 % 1020,8 hPa 0,0 l/m² 0 min 0 W/m² 0,0 km/h (0 Bft) 100,00 %
25.04.2026 04:50 5,8 °C 4,4 °C 1,7 °C 92 % 1020,8 hPa 0,0 l/m² 0 min 0 W/m² 0,0 km/h (0 Bft) 100,00 %
25.04.2026 04:52 5,7 °C 4,4 °C 1,7 °C 92 % 1020,8 hPa 0,0 l/m² 0 min 0 W/m² 0,0 km/h (0 Bft) 97,87 %
25.04.2026 04:54 5,7 °C 4,4 °C 1,7 °C 92 % 1020,8 hPa 0,0 l/m² 0 min 0 W/m² 3,2 km/h (1 Bft) 100,00 %
25.04.2026 04:56 5,7 °C 4,4 °C 1,7 °C 92 % 1020,8 hPa 0,0 l/m² 0 min 0 W/m² 3,2 km/h (1 Bft) 100,00 %
25.04.2026 04:58 5,7 °C 4,4 °C 1,7 °C 92 % 1020,8 hPa 0,0 l/m² 0 min 0 W/m² 6,4 km/h (2 Bft) 100,00 %
25.04.2026 05:00 5,6 °C 4,4 °C 1,7 °C 92 % 1020,8 hPa 0,0 l/m² 0 min 0 W/m² 3,2 km/h (1 Bft) 100,00 %
25.04.2026 05:02 5,6 °C 4,4 °C 1,7 °C 92 % 1020,7 hPa 0,0 l/m² 0 min 0 W/m² 0,0 km/h (0 Bft) 100,00 %
25.04.2026 05:04 5,6 °C 4,4 °C 1,7 °C 92 % 1020,7 hPa 0,0 l/m² 0 min 0 W/m² 3,2 km/h (1 Bft) 100,00 %
25.04.2026 05:06 5,6 °C 4,4 °C 1,7 °C 92 % 1020,6 hPa 0,0 l/m² 0 min 0 W/m² 0,0 km/h (0 Bft) 96,30 %
25.04.2026 05:08 5,6 °C 4,4 °C 1,7 °C 93 % 1020,7 hPa 0,0 l/m² 0 min 0 W/m² 3,2 km/h (1 Bft) 97,14 %
25.04.2026 05:10 5,6 °C 4,4 °C 1,7 °C 93 % 1020,7 hPa 0,0 l/m² 0 min 0 W/m² 6,4 km/h (2 Bft) 100,00 %
25.04.2026 05:12 5,6 °C 4,4 °C 1,7 °C 93 % 1020,7 hPa 0,0 l/m² 0 min 0 W/m² 3,2 km/h (1 Bft) 100,00 %
25.04.2026 05:14 5,6 °C 4,4 °C 1,7 °C 92 % 1020,7 hPa 0,0 l/m² 0 min 0 W/m² 0,0 km/h (0 Bft) 100,00 %
25.04.2026 05:16 5,6 °C 4,4 °C 1,7 °C 93 % 1020,7 hPa 0,0 l/m² 0 min 0 W/m² 3,2 km/h (1 Bft) 100,00 %
25.04.2026 05:18 5,6 °C 4,4 °C 1,7 °C 93 % 1020,7 hPa 0,0 l/m² 0 min 0 W/m² 3,2 km/h (1 Bft) 100,00 %
25.04.2026 05:20 5,6 °C 4,4 °C 1,7 °C 93 % 1020,7 hPa 0,0 l/m² 0 min 0 W/m² 3,2 km/h (1 Bft) 97,83 %
25.04.2026 05:22 5,5 °C 4,4 °C 1,7 °C 93 % 1020,7 hPa 0,0 l/m² 0 min 0 W/m² 6,4 km/h (2 Bft) 100,00 %
25.04.2026 05:24 5,5 °C 4,4 °C 1,7 °C 93 % 1020,8 hPa 0,0 l/m² 0 min 0 W/m² 6,4 km/h (2 Bft) 100,00 %
25.04.2026 05:26 5,4 °C 4,4 °C 1,7 °C 93 % 1020,8 hPa 0,0 l/m² 0 min 0 W/m² 6,4 km/h (2 Bft) 98,00 %
25.04.2026 05:28 5,4 °C 4,4 °C 1,7 °C 93 % 1020,7 hPa 0,0 l/m² 0 min 0 W/m² 6,4 km/h (2 Bft) 95,74 %
25.04.2026 05:30 5,4 °C 4,4 °C 1,7 °C 93 % 1020,7 hPa 0,0 l/m² 0 min 0 W/m² 3,2 km/h (1 Bft) 97,87 %
25.04.2026 05:32 5,3 °C 4,4 °C 1,7 °C 93 % 1020,7 hPa 0,0 l/m² 0 min 0 W/m² 6,4 km/h (2 Bft) 97,87 %
25.04.2026 05:34 5,3 °C 4,4 °C 1,7 °C 93 % 1020,7 hPa 0,0 l/m² 0 min 0 W/m² 6,4 km/h (2 Bft) 100,00 %
25.04.2026 05:36 5,3 °C 4,4 °C 1,7 °C 93 % 1020,7 hPa 0,0 l/m² 0 min 0 W/m² 6,4 km/h (2 Bft) 94,00 %
25.04.2026 05:38 5,3 °C 4,4 °C 1,7 °C 93 % 1020,7 hPa 0,0 l/m² 0 min 0 W/m² 6,4 km/h (2 Bft) 95,65 %
25.04.2026 05:40 5,3 °C 4,4 °C 1,7 °C 93 % 1020,7 hPa 0,0 l/m² 0 min 0 W/m² 3,2 km/h (1 Bft) 97,87 %
25.04.2026 05:42 5,3 °C 4,4 °C 1,7 °C 93 % 1020,6 hPa 0,0 l/m² 0 min 0 W/m² 6,4 km/h (2 Bft) 97,87 %
25.04.2026 05:44 5,3 °C 4,4 °C 1,7 °C 93 % 1020,7 hPa 0,0 l/m² 0 min 0 W/m² 6,4 km/h (2 Bft) 94,00 %
25.04.2026 05:46 5,2 °C 4,4 °C 1,1 °C 93 % 1020,7 hPa 0,0 l/m² 0 min 0 W/m² 9,7 km/h (2 Bft) 95,74 %
25.04.2026 05:48 5,2 °C 4,4 °C 1,1 °C 93 % 1020,7 hPa 0,0 l/m² 0 min 0 W/m² 9,7 km/h (2 Bft) 98,15 %
25.04.2026 05:50 5,2 °C 4,4 °C 1,1 °C 93 % 1020,7 hPa 0,0 l/m² 0 min 0 W/m² 12,9 km/h (3 Bft) 100,00 %
25.04.2026 05:52 5,2 °C 4,4 °C 1,7 °C 93 % 1020,6 hPa 0,0 l/m² 0 min 0 W/m² 12,9 km/h (3 Bft) 97,83 %
25.04.2026 05:54 5,2 °C 4,4 °C 1,7 °C 93 % 1020,7 hPa 0,0 l/m² 0 min 0 W/m² 6,4 km/h (2 Bft) 100,00 %
25.04.2026 05:56 5,2 °C 4,4 °C 1,7 °C 93 % 1020,7 hPa 0,0 l/m² 0 min 0 W/m² 9,7 km/h (2 Bft) 97,14 %
25.04.2026 05:58 5,2 °C 4,4 °C 1,7 °C 93 % 1020,7 hPa 0,0 l/m² 0 min 0 W/m² 6,4 km/h (2 Bft) 100,00 %
25.04.2026 06:00 5,2 °C 4,4 °C 1,7 °C 94 % 1020,7 hPa 0,0 l/m² 0 min 0 W/m² 6,4 km/h (2 Bft) 97,87 %
25.04.2026 06:02 5,3 °C 4,4 °C 1,7 °C 94 % 1020,7 hPa 0,0 l/m² 0 min 0 W/m² 3,2 km/h (1 Bft) 98,21 %
25.04.2026 06:04 5,3 °C 5,0 °C 1,7 °C 94 % 1020,7 hPa 0,0 l/m² 0 min 0 W/m² 9,7 km/h (2 Bft) 100,00 %
25.04.2026 06:08 5,3 °C 5,0 °C 1,7 °C 94 % 1020,7 hPa 0,0 l/m² 0 min 0 W/m² 9,7 km/h (2 Bft) 97,67 %
25.04.2026 06:10 5,3 °C 5,0 °C 1,7 °C 94 % 1020,7 hPa 0,0 l/m² 0 min 0 W/m² 6,4 km/h (2 Bft) 100,00 %
25.04.2026 06:12 5,3 °C 5,0 °C 1,7 °C 94 % 1020,7 hPa 0,0 l/m² 0 min 0 W/m² 0,0 km/h (0 Bft) 97,83 %
25.04.2026 06:14 5,4 °C 5,0 °C 2,2 °C 94 % 1020,7 hPa 0,0 l/m² 0 min 0 W/m² 3,2 km/h (1 Bft) 98,00 %
25.04.2026 06:16 5,4 °C 5,0 °C 2,2 °C 94 % 1020,7 hPa 0,0 l/m² 0 min 0 W/m² 3,2 km/h (1 Bft) 97,87 %
25.04.2026 06:18 5,4 °C 5,0 °C 1,7 °C 94 % 1020,6 hPa 0,0 l/m² 0 min 0 W/m² 6,4 km/h (2 Bft) 95,74 %
25.04.2026 06:20 5,4 °C 5,0 °C 1,7 °C 94 % 1020,6 hPa 0,0 l/m² 0 min 0 W/m² 6,4 km/h (2 Bft) 97,87 %
25.04.2026 06:22 5,4 °C 5,0 °C 2,2 °C 94 % 1020,7 hPa 0,0 l/m² 0 min 0 W/m² 12,9 km/h (3 Bft) 98,00 %
25.04.2026 06:24 5,4 °C 5,0 °C 1,7 °C 94 % 1020,7 hPa 0,0 l/m² 0 min 0 W/m² 9,7 km/h (2 Bft) 95,74 %
25.04.2026 06:26 5,4 °C 5,0 °C 1,7 °C 94 % 1020,7 hPa 0,0 l/m² 0 min 0 W/m² 9,7 km/h (2 Bft) 97,83 %
25.04.2026 06:28 5,4 °C 5,0 °C 1,7 °C 94 % 1020,7 hPa 0,0 l/m² 0 min 0 W/m² 9,7 km/h (2 Bft) 93,62 %
25.04.2026 06:30 5,4 °C 5,0 °C 1,7 °C 94 % 1020,8 hPa 0,0 l/m² 0 min 0 W/m² 6,4 km/h (2 Bft) 95,74 %
25.04.2026 06:32 5,3 °C 5,0 °C 1,7 °C 94 % 1020,8 hPa 0,0 l/m² 0 min 0 W/m² 6,4 km/h (2 Bft) 97,87 %
25.04.2026 06:34 5,3 °C 5,0 °C 1,7 °C 95 % 1020,7 hPa 0,0 l/m² 0 min 0 W/m² 3,2 km/h (1 Bft) 97,14 %
25.04.2026 06:36 5,3 °C 5,0 °C 1,7 °C 95 % 1020,7 hPa 0,0 l/m² 0 min 0 W/m² 3,2 km/h (1 Bft) 98,11 %
25.04.2026 06:38 5,3 °C 5,0 °C 1,7 °C 94 % 1020,7 hPa 0,0 l/m² 0 min 0 W/m² 3,2 km/h (1 Bft) 95,74 %
25.04.2026 06:40 5,3 °C 5,0 °C 1,7 °C 94 % 1020,8 hPa 0,0 l/m² 0 min 0 W/m² 3,2 km/h (1 Bft) 94,29 %
25.04.2026 06:42 5,3 °C 5,0 °C 2,2 °C 95 % 1020,8 hPa 0,0 l/m² 0 min 0 W/m² 3,2 km/h (1 Bft) 96,77 %
25.04.2026 06:44 5,3 °C 4,4 °C 1,7 °C 95 % 1020,8 hPa 0,0 l/m² 0 min 1 W/m² 9,7 km/h (2 Bft) 93,62 %
25.04.2026 06:46 5,3 °C 4,4 °C 1,7 °C 95 % 1020,9 hPa 0,0 l/m² 0 min 5 W/m² 3,2 km/h (1 Bft) 91,30 %
25.04.2026 06:48 5,3 °C 4,4 °C 1,7 °C 95 % 1020,8 hPa 0,0 l/m² 0 min 5 W/m² 6,4 km/h (2 Bft) 95,74 %
25.04.2026 06:50 5,2 °C 4,4 °C 1,7 °C 95 % 1020,8 hPa 0,0 l/m² 0 min 6 W/m² 6,4 km/h (2 Bft) 97,87 %
25.04.2026 06:52 5,2 °C 4,4 °C 1,7 °C 95 % 1020,8 hPa 0,0 l/m² 0 min 8 W/m² 3,2 km/h (1 Bft) 95,74 %
25.04.2026 06:54 5,2 °C 4,4 °C 1,7 °C 95 % 1020,8 hPa 0,0 l/m² 0 min 10 W/m² 3,2 km/h (1 Bft) 96,00 %
25.04.2026 06:56 5,2 °C 4,4 °C 1,7 °C 95 % 1020,8 hPa 0,0 l/m² 0 min 9 W/m² 3,2 km/h (1 Bft) 97,37 %
25.04.2026 06:58 5,2 °C 5,0 °C 1,7 °C 95 % 1020,9 hPa 0,0 l/m² 0 min 9 W/m² 6,4 km/h (2 Bft) 96,00 %
25.04.2026 07:00 5,2 °C 5,0 °C 1,7 °C 95 % 1020,9 hPa 0,0 l/m² 0 min 9 W/m² 6,4 km/h (2 Bft) 95,74 %
25.04.2026 07:02 5,2 °C 5,0 °C 1,7 °C 95 % 1020,9 hPa 0,0 l/m² 0 min 9 W/m² 3,2 km/h (1 Bft) 92,00 %
25.04.2026 07:04 5,3 °C 5,0 °C 1,7 °C 95 % 1020,8 hPa 0,0 l/m² 0 min 9 W/m² 3,2 km/h (1 Bft) 95,65 %
25.04.2026 07:06 5,3 °C 5,0 °C 2,2 °C 95 % 1020,8 hPa 0,0 l/m² 0 min 9 W/m² 6,4 km/h (2 Bft) 93,62 %
25.04.2026 07:08 5,3 °C 5,0 °C 2,2 °C 95 % 1020,9 hPa 0,0 l/m² 0 min 9 W/m² 3,2 km/h (1 Bft) 92,86 %
25.04.2026 07:10 5,3 °C 5,0 °C 2,2 °C 95 % 1020,9 hPa 0,0 l/m² 0 min 8 W/m² 6,4 km/h (2 Bft) 96,23 %
25.04.2026 07:12 5,3 °C 5,0 °C 2,2 °C 95 % 1021,0 hPa 0,0 l/m² 0 min 8 W/m² 3,2 km/h (1 Bft) 95,74 %
25.04.2026 07:14 5,3 °C 5,0 °C 2,2 °C 95 % 1020,9 hPa 0,0 l/m² 0 min 11 W/m² 3,2 km/h (1 Bft) 94,74 %
25.04.2026 07:16 5,3 °C 5,0 °C 2,2 °C 95 % 1021,0 hPa 0,0 l/m² 0 min 17 W/m² 6,4 km/h (2 Bft) 95,74 %
25.04.2026 07:18 5,3 °C 5,0 °C 2,2 °C 95 % 1021,0 hPa 0,0 l/m² 0 min 19 W/m² 3,2 km/h (1 Bft) 95,74 %
25.04.2026 07:20 5,3 °C 5,0 °C 2,2 °C 95 % 1021,0 hPa 0,0 l/m² 0 min 21 W/m² 3,2 km/h (1 Bft) 96,00 %
25.04.2026 07:22 5,3 °C 5,0 °C 2,2 °C 95 % 1021,1 hPa 0,0 l/m² 0 min 22 W/m² 3,2 km/h (1 Bft) 93,62 %
25.04.2026 07:24 5,3 °C 5,0 °C 2,2 °C 95 % 1021,1 hPa 0,0 l/m² 0 min 19 W/m² 3,2 km/h (1 Bft) 95,92 %
25.04.2026 07:26 5,3 °C 5,0 °C 2,2 °C 95 % 1021,1 hPa 0,0 l/m² 0 min 21 W/m² 6,4 km/h (2 Bft) 94,00 %
25.04.2026 07:28 5,3 °C 5,0 °C 1,7 °C 96 % 1021,1 hPa 0,0 l/m² 0 min 22 W/m² 12,9 km/h (3 Bft) 95,24 %
25.04.2026 07:30 5,3 °C 5,0 °C 1,7 °C 96 % 1021,2 hPa 0,0 l/m² 0 min 26 W/m² 9,7 km/h (2 Bft) 98,00 %
25.04.2026 07:32 5,3 °C 5,0 °C 2,2 °C 95 % 1021,2 hPa 0,0 l/m² 0 min 26 W/m² 3,2 km/h (1 Bft) 95,74 %
25.04.2026 07:34 5,3 °C 5,0 °C 1,7 °C 95 % 1021,1 hPa 0,0 l/m² 0 min 26 W/m² 6,4 km/h (2 Bft) 98,00 %
25.04.2026 07:36 5,3 °C 5,0 °C 1,7 °C 96 % 1021,1 hPa 0,0 l/m² 0 min 29 W/m² 6,4 km/h (2 Bft) 95,74 %
25.04.2026 07:38 5,3 °C 5,0 °C 1,7 °C 95 % 1021,1 hPa 0,0 l/m² 0 min 31 W/m² 6,4 km/h (2 Bft) 93,48 %
25.04.2026 07:40 5,2 °C 5,0 °C 1,7 °C 95 % 1021,1 hPa 0,0 l/m² 0 min 33 W/m² 9,7 km/h (2 Bft) 97,87 %
25.04.2026 07:42 5,2 °C 5,0 °C 1,7 °C 95 % 1021,2 hPa 0,0 l/m² 0 min 35 W/m² 6,4 km/h (2 Bft) 97,87 %
25.04.2026 07:44 5,2 °C 5,0 °C 1,7 °C 96 % 1021,1 hPa 0,0 l/m² 0 min 37 W/m² 3,2 km/h (1 Bft) 100,00 %
25.04.2026 07:46 5,2 °C 5,0 °C 1,7 °C 96 % 1021,1 hPa 0,0 l/m² 0 min 39 W/m² 6,4 km/h (2 Bft) 98,11 %
25.04.2026 07:48 5,2 °C 5,0 °C 1,7 °C 96 % 1021,1 hPa 0,0 l/m² 0 min 40 W/m² 6,4 km/h (2 Bft) 100,00 %
25.04.2026 07:50 5,2 °C 5,0 °C 1,7 °C 96 % 1021,1 hPa 0,0 l/m² 0 min 41 W/m² 6,4 km/h (2 Bft) 97,87 %
25.04.2026 07:52 5,2 °C 5,0 °C 1,7 °C 96 % 1021,1 hPa 0,0 l/m² 0 min 43 W/m² 3,2 km/h (1 Bft) 100,00 %
25.04.2026 07:54 5,2 °C 5,0 °C 2,2 °C 96 % 1021,1 hPa 0,0 l/m² 0 min 44 W/m² 9,7 km/h (2 Bft) 100,00 %
25.04.2026 07:56 5,2 °C 5,0 °C 1,7 °C 96 % 1021,2 hPa 0,0 l/m² 0 min 44 W/m² 12,9 km/h (3 Bft) 98,00 %
25.04.2026 07:58 5,2 °C 5,0 °C 1,7 °C 96 % 1021,3 hPa 0,0 l/m² 0 min 44 W/m² 6,4 km/h (2 Bft) 100,00 %
25.04.2026 08:00 5,2 °C 5,0 °C 1,7 °C 96 % 1021,2 hPa 0,0 l/m² 0 min 47 W/m² 6,4 km/h (2 Bft) 100,00 %
25.04.2026 08:02 5,2 °C 5,0 °C 1,7 °C 96 % 1021,2 hPa 0,0 l/m² 0 min 51 W/m² 9,7 km/h (2 Bft) 97,87 %
25.04.2026 08:04 5,2 °C 5,0 °C 2,2 °C 96 % 1021,2 hPa 0,0 l/m² 0 min 53 W/m² 3,2 km/h (1 Bft) 94,74 %
25.04.2026 08:06 5,2 °C 5,0 °C 2,2 °C 96 % 1021,2 hPa 0,0 l/m² 0 min 54 W/m² 0,0 km/h (0 Bft) 100,00 %
25.04.2026 08:08 5,2 °C 5,0 °C 2,2 °C 96 % 1021,2 hPa 0,0 l/m² 0 min 54 W/m² 0,0 km/h (0 Bft) 100,00 %
25.04.2026 08:10 5,2 °C 5,0 °C 2,2 °C 96 % 1021,2 hPa 0,0 l/m² 0 min 53 W/m² 0,0 km/h (0 Bft) 97,87 %
25.04.2026 08:12 5,3 °C 5,6 °C 2,2 °C 96 % 1021,3 hPa 0,0 l/m² 0 min 49 W/m² 6,4 km/h (2 Bft) 100,00 %
25.04.2026 08:14 5,3 °C 5,6 °C 2,2 °C 96 % 1021,3 hPa 0,0 l/m² 0 min 47 W/m² 3,2 km/h (1 Bft) 100,00 %
25.04.2026 08:16 5,3 °C 5,6 °C 2,2 °C 96 % 1021,4 hPa 0,0 l/m² 0 min 47 W/m² 6,4 km/h (2 Bft) 100,00 %
25.04.2026 08:18 5,4 °C 5,6 °C 2,2 °C 96 % 1021,4 hPa 0,0 l/m² 0 min 49 W/m² 9,7 km/h (2 Bft) 100,00 %
25.04.2026 08:20 5,4 °C 5,0 °C 2,2 °C 96 % 1021,5 hPa 0,0 l/m² 0 min 51 W/m² 16,1 km/h (3 Bft) 97,87 %
25.04.2026 08:22 5,4 °C 5,0 °C 2,2 °C 96 % 1021,4 hPa 0,0 l/m² 0 min 51 W/m² 9,7 km/h (2 Bft) 100,00 %
25.04.2026 08:24 5,4 °C 5,0 °C 2,2 °C 96 % 1021,5 hPa 0,0 l/m² 0 min 54 W/m² 16,1 km/h (3 Bft) 100,00 %
25.04.2026 08:26 5,4 °C 5,6 °C 2,2 °C 96 % 1021,5 hPa 0,0 l/m² 0 min 56 W/m² 9,7 km/h (2 Bft) 100,00 %
25.04.2026 08:28 5,3 °C 5,6 °C 2,2 °C 96 % 1021,6 hPa 0,0 l/m² 0 min 55 W/m² 3,2 km/h (1 Bft) 97,87 %
25.04.2026 08:30 5,3 °C 5,0 °C 2,2 °C 96 % 1021,5 hPa 0,0 l/m² 0 min 57 W/m² 3,2 km/h (1 Bft) 94,29 %
25.04.2026 08:32 5,3 °C 5,6 °C 2,2 °C 96 % 1021,5 hPa 0,0 l/m² 0 min 59 W/m² 3,2 km/h (1 Bft) 98,28 %
25.04.2026 08:34 5,4 °C 5,6 °C 2,2 °C 96 % 1021,6 hPa 0,0 l/m² 0 min 60 W/m² 6,4 km/h (2 Bft) 97,22 %
25.04.2026 08:36 5,4 °C 5,6 °C 2,2 °C 96 % 1021,5 hPa 0,0 l/m² 0 min 60 W/m² 3,2 km/h (1 Bft) 97,83 %
25.04.2026 08:38 5,4 °C 5,6 °C 2,2 °C 96 % 1021,5 hPa 0,0 l/m² 0 min 60 W/m² 6,4 km/h (2 Bft) 100,00 %
25.04.2026 08:40 5,5 °C 5,6 °C 2,2 °C 97 % 1021,4 hPa 0,0 l/m² 0 min 61 W/m² 6,4 km/h (2 Bft) 51,16 %
25.04.2026 08:42 5,5 °C 5,6 °C 2,2 °C 97 % 1021,4 hPa 0,0 l/m² 0 min 70 W/m² 9,7 km/h (2 Bft) 95,74 %
25.04.2026 08:44 5,4 °C 5,6 °C 2,2 °C 97 % 1021,4 hPa 0,0 l/m² 0 min 79 W/m² 3,2 km/h (1 Bft) 95,74 %
25.04.2026 08:46 5,4 °C 5,6 °C 2,2 °C 96 % 1021,4 hPa 0,0 l/m² 0 min 77 W/m² 9,7 km/h (2 Bft) 93,62 %
25.04.2026 08:48 5,4 °C 5,6 °C 2,2 °C 96 % 1021,4 hPa 0,0 l/m² 0 min 78 W/m² 9,7 km/h (2 Bft) 95,74 %
25.04.2026 08:50 5,4 °C 5,6 °C 2,2 °C 96 % 1021,4 hPa 0,0 l/m² 0 min 84 W/m² 12,9 km/h (3 Bft) 96,00 %
25.04.2026 08:52 5,4 °C 5,6 °C 2,2 °C 96 % 1021,4 hPa 0,0 l/m² 0 min 86 W/m² 9,7 km/h (2 Bft) 95,92 %
25.04.2026 08:54 5,4 °C 5,6 °C 2,2 °C 96 % 1021,4 hPa 0,0 l/m² 0 min 84 W/m² 6,4 km/h (2 Bft) 95,74 %
25.04.2026 08:56 5,4 °C 5,6 °C 2,8 °C 96 % 1021,4 hPa 0,0 l/m² 0 min 81 W/m² 3,2 km/h (1 Bft) 95,74 %
25.04.2026 08:58 5,4 °C 5,6 °C 2,2 °C 96 % 1021,4 hPa 0,0 l/m² 0 min 81 W/m² 3,2 km/h (1 Bft) 97,87 %
25.04.2026 09:00 5,4 °C 5,6 °C 2,2 °C 96 % 1021,4 hPa 0,0 l/m² 0 min 78 W/m² 3,2 km/h (1 Bft) 95,74 %
25.04.2026 09:02 5,4 °C 5,6 °C 2,2 °C 96 % 1021,5 hPa 0,0 l/m² 0 min 77 W/m² 6,4 km/h (2 Bft) 95,12 %
25.04.2026 09:04 5,5 °C 5,6 °C 2,2 °C 96 % 1021,5 hPa 0,0 l/m² 0 min 77 W/m² 6,4 km/h (2 Bft) 95,74 %
25.04.2026 09:06 5,6 °C 5,6 °C 2,2 °C 96 % 1021,4 hPa 0,0 l/m² 0 min 76 W/m² 9,7 km/h (2 Bft) 94,92 %
25.04.2026 09:08 5,6 °C 5,6 °C 2,2 °C 97 % 1021,4 hPa 0,0 l/m² 0 min 80 W/m² 12,9 km/h (3 Bft) 97,14 %
25.04.2026 09:10 5,6 °C 5,6 °C 2,2 °C 97 % 1021,4 hPa 0,0 l/m² 0 min 89 W/m² 6,4 km/h (2 Bft) 95,74 %
25.04.2026 09:12 5,6 °C 5,6 °C 2,2 °C 97 % 1021,4 hPa 0,0 l/m² 0 min 92 W/m² 3,2 km/h (1 Bft) 100,00 %
25.04.2026 09:14 5,6 °C 5,6 °C 2,8 °C 97 % 1021,4 hPa 0,0 l/m² 0 min 89 W/m² 3,2 km/h (1 Bft) 100,00 %
25.04.2026 09:16 5,6 °C 6,1 °C 2,8 °C 97 % 1021,4 hPa 0,0 l/m² 0 min 94 W/m² 6,4 km/h (2 Bft) 97,87 %
25.04.2026 09:18 5,7 °C 5,6 °C 2,8 °C 97 % 1021,4 hPa 0,0 l/m² 0 min 107 W/m² 3,2 km/h (1 Bft) 100,00 %
25.04.2026 09:20 5,6 °C 5,6 °C 2,8 °C 97 % 1021,4 hPa 0,0 l/m² 0 min 113 W/m² 3,2 km/h (1 Bft) 100,00 %
25.04.2026 09:22 5,6 °C 5,6 °C 2,8 °C 97 % 1021,5 hPa 0,0 l/m² 0 min 103 W/m² 3,2 km/h (1 Bft) 100,00 %
25.04.2026 09:24 5,6 °C 5,6 °C 2,8 °C 97 % 1021,5 hPa 0,0 l/m² 0 min 98 W/m² 12,9 km/h (3 Bft) 100,00 %
25.04.2026 09:26 5,6 °C 6,1 °C 2,2 °C 97 % 1021,5 hPa 0,0 l/m² 0 min 100 W/m² 9,7 km/h (2 Bft) 100,00 %
25.04.2026 09:28 5,5 °C 6,1 °C 2,2 °C 97 % 1021,5 hPa 0,0 l/m² 0 min 100 W/m² 6,4 km/h (2 Bft) 100,00 %
25.04.2026 09:30 5,5 °C 6,1 °C 2,8 °C 97 % 1021,5 hPa 0,0 l/m² 0 min 98 W/m² 9,7 km/h (2 Bft) 100,00 %
25.04.2026 09:32 5,6 °C 6,1 °C 2,2 °C 97 % 1021,5 hPa 0,0 l/m² 0 min 101 W/m² 9,7 km/h (2 Bft) 100,00 %
25.04.2026 09:34 5,6 °C 6,1 °C 2,8 °C 97 % 1021,5 hPa 0,0 l/m² 0 min 105 W/m² 6,4 km/h (2 Bft) 97,87 %
25.04.2026 09:36 5,5 °C 5,6 °C 2,2 °C 97 % 1021,5 hPa 0,0 l/m² 0 min 119 W/m² 9,7 km/h (2 Bft) 100,00 %
25.04.2026 09:38 5,4 °C 5,6 °C 2,8 °C 97 % 1021,5 hPa 0,0 l/m² 0 min 124 W/m² 3,2 km/h (1 Bft) 97,87 %
25.04.2026 09:40 5,3 °C 5,6 °C 2,8 °C 97 % 1021,5 hPa 0,0 l/m² 0 min 122 W/m² 6,4 km/h (2 Bft) 100,00 %
25.04.2026 09:42 5,3 °C 5,6 °C 2,8 °C 97 % 1021,5 hPa 0,0 l/m² 0 min 126 W/m² 6,4 km/h (2 Bft) 100,00 %
25.04.2026 09:44 5,3 °C 5,6 °C 2,8 °C 97 % 1021,5 hPa 0,0 l/m² 0 min 124 W/m² 6,4 km/h (2 Bft) 100,00 %
25.04.2026 09:46 5,4 °C 6,1 °C 2,8 °C 97 % 1021,6 hPa 0,0 l/m² 0 min 126 W/m² 3,2 km/h (1 Bft) 100,00 %
25.04.2026 09:48 5,4 °C 6,1 °C 2,8 °C 97 % 1021,6 hPa 0,0 l/m² 0 min 128 W/m² 3,2 km/h (1 Bft) 100,00 %
25.04.2026 09:50 5,4 °C 6,1 °C 2,8 °C 97 % 1021,6 hPa 0,0 l/m² 0 min 128 W/m² 6,4 km/h (2 Bft) 96,00 %
25.04.2026 09:52 5,5 °C 6,1 °C 2,8 °C 97 % 1021,7 hPa 0,0 l/m² 0 min 133 W/m² 9,7 km/h (2 Bft) 100,00 %
25.04.2026 09:54 5,5 °C 6,1 °C 2,8 °C 97 % 1021,7 hPa 0,0 l/m² 0 min 139 W/m² 9,7 km/h (2 Bft) 100,00 %
25.04.2026 09:56 5,4 °C 6,1 °C 2,8 °C 97 % 1021,7 hPa 0,0 l/m² 0 min 140 W/m² 9,7 km/h (2 Bft) 100,00 %
25.04.2026 09:58 5,4 °C 6,1 °C 2,8 °C 96 % 1021,7 hPa 0,0 l/m² 0 min 144 W/m² 3,2 km/h (1 Bft) 97,87 %
25.04.2026 10:00 5,4 °C 6,1 °C 2,8 °C 96 % 1021,8 hPa 0,0 l/m² 0 min 155 W/m² 6,4 km/h (2 Bft) 97,37 %
25.04.2026 10:02 5,4 °C 6,7 °C 2,8 °C 96 % 1021,8 hPa 0,0 l/m² 0 min 155 W/m² 6,4 km/h (2 Bft) 100,00 %
25.04.2026 10:04 5,4 °C 6,7 °C 3,3 °C 96 % 1021,8 hPa 0,0 l/m² 0 min 156 W/m² 3,2 km/h (1 Bft) 96,00 %
25.04.2026 10:06 5,4 °C 6,1 °C 2,8 °C 96 % 1021,8 hPa 0,0 l/m² 0 min 163 W/m² 6,4 km/h (2 Bft) 97,83 %
25.04.2026 10:08 5,4 °C 6,1 °C 3,3 °C 96 % 1021,8 hPa 0,0 l/m² 0 min 164 W/m² 6,4 km/h (2 Bft) 97,87 %
25.04.2026 10:10 5,4 °C 6,7 °C 3,3 °C 96 % 1021,7 hPa 0,0 l/m² 0 min 167 W/m² 3,2 km/h (1 Bft) 98,00 %
25.04.2026 10:12 5,4 °C 6,7 °C 3,3 °C 96 % 1021,8 hPa 0,0 l/m² 0 min 171 W/m² 6,4 km/h (2 Bft) 100,00 %
25.04.2026 10:14 5,5 °C 6,7 °C 3,3 °C 96 % 1021,8 hPa 0,0 l/m² 0 min 172 W/m² 6,4 km/h (2 Bft) 97,37 %
25.04.2026 10:16 5,6 °C 6,7 °C 3,3 °C 96 % 1021,9 hPa 0,0 l/m² 0 min 174 W/m² 9,7 km/h (2 Bft) 96,00 %
25.04.2026 10:18 5,6 °C 7,2 °C 2,8 °C 96 % 1021,9 hPa 0,0 l/m² 0 min 183 W/m² 16,1 km/h (3 Bft) 97,87 %
25.04.2026 10:20 5,6 °C 7,2 °C 3,3 °C 96 % 1021,8 hPa 0,0 l/m² 0 min 214 W/m² 3,2 km/h (1 Bft) 97,87 %
25.04.2026 10:22 5,6 °C 7,2 °C 3,3 °C 96 % 1021,7 hPa 0,0 l/m² 0 min 242 W/m² 9,7 km/h (2 Bft) 97,96 %
25.04.2026 10:24 5,6 °C 7,8 °C 3,3 °C 96 % 1021,8 hPa 0,0 l/m² 0 min 267 W/m² 6,4 km/h (2 Bft) 95,24 %
25.04.2026 10:26 5,6 °C 7,8 °C 3,3 °C 96 % 1021,8 hPa 0,0 l/m² 0 min 257 W/m² 6,4 km/h (2 Bft) 97,87 %
25.04.2026 10:28 5,6 °C 7,8 °C 3,9 °C 96 % 1021,7 hPa 0,0 l/m² 0 min 281 W/m² 9,7 km/h (2 Bft) 97,87 %
25.04.2026 10:30 5,7 °C 7,8 °C 3,9 °C 96 % 1021,7 hPa 0,0 l/m² 0 min 285 W/m² 3,2 km/h (1 Bft) 95,74 %
25.04.2026 10:32 5,7 °C 8,3 °C 4,4 °C 96 % 1021,8 hPa 0,0 l/m² 2 min 338 W/m² 3,2 km/h (1 Bft) 95,74 %
25.04.2026 10:34 5,7 °C 7,8 °C 4,4 °C 96 % 1021,8 hPa 0,0 l/m² 0 min 296 W/m² 6,4 km/h (2 Bft) 93,62 %
25.04.2026 10:36 5,7 °C 7,8 °C 3,9 °C 95 % 1021,7 hPa 0,0 l/m² 0 min 270 W/m² 9,7 km/h (2 Bft) 94,00 %
25.04.2026 10:38 5,8 °C 7,8 °C 3,9 °C 95 % 1021,8 hPa 0,0 l/m² 0 min 279 W/m² 6,4 km/h (2 Bft) 95,74 %
25.04.2026 10:40 5,9 °C 8,3 °C 3,9 °C 95 % 1021,8 hPa 0,0 l/m² 0 min 272 W/m² 12,9 km/h (3 Bft) 95,65 %
25.04.2026 10:42 5,9 °C 8,3 °C 4,4 °C 95 % 1021,8 hPa 0,0 l/m² 0 min 276 W/m² 6,4 km/h (2 Bft) 93,62 %
25.04.2026 10:44 6,1 °C 8,3 °C 4,4 °C 95 % 1021,8 hPa 0,0 l/m² 2 min 325 W/m² 6,4 km/h (2 Bft) 93,62 %
25.04.2026 10:46 6,2 °C 8,9 °C 5,0 °C 95 % 1021,9 hPa 0,0 l/m² 2 min 415 W/m² 3,2 km/h (1 Bft) 91,49 %
25.04.2026 10:48 6,2 °C 8,3 °C 4,4 °C 94 % 1021,8 hPa 0,0 l/m² 2 min 377 W/m² 9,7 km/h (2 Bft) 95,74 %
25.04.2026 10:50 6,3 °C 8,9 °C 5,0 °C 94 % 1021,8 hPa 0,0 l/m² 2 min 337 W/m² 6,4 km/h (2 Bft) 94,00 %
25.04.2026 10:52 6,5 °C 8,9 °C 5,0 °C 94 % 1021,8 hPa 0,0 l/m² 2 min 343 W/m² 6,4 km/h (2 Bft) 96,00 %
25.04.2026 10:54 6,6 °C 9,4 °C 5,0 °C 94 % 1021,8 hPa 0,0 l/m² 2 min 334 W/m² 9,7 km/h (2 Bft) 94,74 %
25.04.2026 10:56 6,7 °C 9,4 °C 5,6 °C 94 % 1021,8 hPa 0,0 l/m² 2 min 367 W/m² 0,0 km/h (0 Bft) 97,87 %
25.04.2026 10:58 6,8 °C 10,6 °C 5,6 °C 93 % 1021,8 hPa 0,0 l/m² 2 min 415 W/m² 9,7 km/h (2 Bft) 97,96 %
25.04.2026 11:00 6,9 °C 11,7 °C 5,6 °C 93 % 1021,9 hPa 0,0 l/m² 2 min 466 W/m² 6,4 km/h (2 Bft) 97,87 %
25.04.2026 11:02 7,1 °C 12,2 °C 6,1 °C 93 % 1021,9 hPa 0,0 l/m² 2 min 837 W/m² 16,1 km/h (3 Bft) 98,00 %
25.04.2026 11:04 7,2 °C 11,1 °C 5,6 °C 92 % 1021,9 hPa 0,0 l/m² 2 min 399 W/m² 6,4 km/h (2 Bft) 97,87 %
25.04.2026 11:06 7,3 °C 10,0 °C 5,6 °C 92 % 1021,9 hPa 0,0 l/m² 2 min 334 W/m² 12,9 km/h (3 Bft) 97,87 %
25.04.2026 11:08 7,3 °C 10,6 °C 5,6 °C 91 % 1021,9 hPa 0,0 l/m² 0 min 311 W/m² 9,7 km/h (2 Bft) 100,00 %
25.04.2026 11:10 7,3 °C 10,0 °C 5,0 °C 90 % 1021,9 hPa 0,0 l/m² 2 min 758 W/m² 9,7 km/h (2 Bft) 100,00 %
25.04.2026 11:12 7,3 °C 12,2 °C 5,0 °C 89 % 1021,9 hPa 0,0 l/m² 2 min 823 W/m² 6,4 km/h (2 Bft) 100,00 %
25.04.2026 11:14 7,4 °C 13,3 °C 5,6 °C 89 % 1021,9 hPa 0,0 l/m² 2 min 897 W/m² 12,9 km/h (3 Bft) 97,87 %
25.04.2026 11:16 7,6 °C 13,9 °C 6,1 °C 89 % 1021,9 hPa 0,0 l/m² 2 min 912 W/m² 9,7 km/h (2 Bft) 97,83 %
25.04.2026 11:18 7,8 °C 13,9 °C 6,7 °C 89 % 1021,9 hPa 0,0 l/m² 2 min 752 W/m² 3,2 km/h (1 Bft) 97,87 %
25.04.2026 11:20 7,9 °C 12,2 °C 6,7 °C 88 % 1021,9 hPa 0,0 l/m² 2 min 534 W/m² 9,7 km/h (2 Bft) 100,00 %
25.04.2026 11:22 8,1 °C 12,2 °C 6,7 °C 88 % 1021,9 hPa 0,0 l/m² 0 min 284 W/m² 12,9 km/h (3 Bft) 100,00 %
25.04.2026 11:24 8,2 °C 12,2 °C 6,7 °C 87 % 1021,9 hPa 0,0 l/m² 2 min 383 W/m² 3,2 km/h (1 Bft) 100,00 %
25.04.2026 11:26 8,4 °C 12,2 °C 6,1 °C 87 % 1021,9 hPa 0,0 l/m² 2 min 383 W/m² 6,4 km/h (2 Bft) 38,24 %
25.04.2026 11:28 8,4 °C 12,2 °C 6,7 °C 86 % 1021,9 hPa 0,0 l/m² 2 min 756 W/m² 6,4 km/h (2 Bft) 100,00 %
25.04.2026 11:30 8,6 °C 12,8 °C 7,2 °C 86 % 1022,0 hPa 0,0 l/m² 2 min 772 W/m² 16,1 km/h (3 Bft) 100,00 %
25.04.2026 11:32 8,7 °C 12,2 °C 7,8 °C 85 % 1022,0 hPa 0,0 l/m² 2 min 806 W/m² 9,7 km/h (2 Bft) 97,87 %
25.04.2026 11:34 8,8 °C 12,2 °C 7,2 °C 84 % 1022,0 hPa 0,0 l/m² 2 min 813 W/m² 9,7 km/h (2 Bft) 97,96 %
25.04.2026 11:36 8,8 °C 13,3 °C 7,2 °C 84 % 1021,9 hPa 0,0 l/m² 2 min 837 W/m² 9,7 km/h (2 Bft) 97,87 %
25.04.2026 11:38 8,9 °C 15,0 °C 7,2 °C 83 % 1021,9 hPa 0,0 l/m² 2 min 810 W/m² 9,7 km/h (2 Bft) 100,00 %
25.04.2026 11:40 9,1 °C 14,4 °C 6,7 °C 83 % 1022,0 hPa 0,0 l/m² 2 min 751 W/m² 9,7 km/h (2 Bft) 100,00 %
25.04.2026 11:42 9,1 °C 13,9 °C 7,2 °C 83 % 1021,9 hPa 0,0 l/m² 2 min 675 W/m² 12,9 km/h (3 Bft) 100,00 %
25.04.2026 11:44 9,2 °C 13,3 °C 7,2 °C 83 % 1021,9 hPa 0,0 l/m² 2 min 760 W/m² 9,7 km/h (2 Bft) 97,87 %
25.04.2026 11:46 9,3 °C 12,8 °C 7,8 °C 82 % 1021,9 hPa 0,0 l/m² 2 min 775 W/m² 9,7 km/h (2 Bft) 97,87 %
25.04.2026 11:48 9,3 °C 12,2 °C 8,3 °C 82 % 1021,9 hPa 0,0 l/m² 2 min 776 W/m² 12,9 km/h (3 Bft) 100,00 %
25.04.2026 11:50 9,5 °C 12,8 °C 8,3 °C 82 % 1021,9 hPa 0,0 l/m² 2 min 780 W/m² 9,7 km/h (2 Bft) 100,00 %
25.04.2026 11:52 9,6 °C 12,8 °C 8,3 °C 81 % 1021,9 hPa 0,0 l/m² 2 min 781 W/m² 6,4 km/h (2 Bft) 100,00 %
25.04.2026 11:54 9,6 °C 13,3 °C 8,9 °C 80 % 1021,9 hPa 0,0 l/m² 2 min 785 W/m² 9,7 km/h (2 Bft) 97,87 %
25.04.2026 11:56 9,6 °C 15,0 °C 8,9 °C 81 % 1021,8 hPa 0,0 l/m² 2 min 787 W/m² 12,9 km/h (3 Bft) 100,00 %
25.04.2026 11:58 9,7 °C 16,7 °C 8,9 °C 81 % 1021,8 hPa 0,0 l/m² 2 min 794 W/m² 12,9 km/h (3 Bft) 100,00 %
25.04.2026 12:00 9,7 °C 17,8 °C 8,9 °C 80 % 1021,7 hPa 0,0 l/m² 2 min 801 W/m² 6,4 km/h (2 Bft) 98,11 %
25.04.2026 12:02 9,8 °C 18,3 °C 10,0 °C 80 % 1021,7 hPa 0,0 l/m² 2 min 797 W/m² 9,7 km/h (2 Bft) 97,87 %
25.04.2026 12:04 9,9 °C 18,9 °C 10,6 °C 80 % 1021,8 hPa 0,0 l/m² 2 min 803 W/m² 6,4 km/h (2 Bft) 100,00 %
25.04.2026 12:06 10,0 °C 18,9 °C 11,1 °C 79 % 1021,7 hPa 0,0 l/m² 2 min 803 W/m² 6,4 km/h (2 Bft) 100,00 %
25.04.2026 12:08 10,1 °C 18,9 °C 12,2 °C 79 % 1021,7 hPa 0,0 l/m² 2 min 802 W/m² 6,4 km/h (2 Bft) 100,00 %
25.04.2026 12:10 10,2 °C 19,4 °C 12,8 °C 79 % 1021,6 hPa 0,0 l/m² 2 min 804 W/m² 6,4 km/h (2 Bft) 100,00 %
25.04.2026 12:12 10,4 °C 20,0 °C 11,7 °C 79 % 1021,6 hPa 0,0 l/m² 2 min 810 W/m² 6,4 km/h (2 Bft) 98,00 %
25.04.2026 12:14 10,7 °C 20,6 °C 11,7 °C 79 % 1021,7 hPa 0,0 l/m² 2 min 809 W/m² 6,4 km/h (2 Bft) 100,00 %
25.04.2026 12:16 10,9 °C 20,6 °C 11,7 °C 78 % 1021,6 hPa 0,0 l/m² 2 min 812 W/m² 9,7 km/h (2 Bft) 100,00 %
25.04.2026 12:18 11,0 °C 21,1 °C 11,1 °C 77 % 1021,7 hPa 0,0 l/m² 2 min 817 W/m² 6,4 km/h (2 Bft) 100,00 %
25.04.2026 12:20 11,2 °C 21,7 °C 11,1 °C 76 % 1021,7 hPa 0,0 l/m² 2 min 819 W/m² 9,7 km/h (2 Bft) 97,87 %
25.04.2026 12:22 11,3 °C 21,1 °C 12,2 °C 76 % 1021,6 hPa 0,0 l/m² 2 min 820 W/m² 12,9 km/h (3 Bft) 97,87 %
25.04.2026 12:24 11,5 °C 22,2 °C 13,3 °C 75 % 1021,6 hPa 0,0 l/m² 2 min 824 W/m² 9,7 km/h (2 Bft) 97,87 %
25.04.2026 12:26 11,6 °C 22,2 °C 14,4 °C 74 % 1021,6 hPa 0,0 l/m² 2 min 824 W/m² 6,4 km/h (2 Bft) 100,00 %
25.04.2026 12:28 11,6 °C 22,2 °C 15,0 °C 73 % 1021,6 hPa 0,0 l/m² 2 min 828 W/m² 6,4 km/h (2 Bft) 97,83 %
25.04.2026 12:30 11,7 °C 22,2 °C 16,1 °C 74 % 1021,5 hPa 0,0 l/m² 2 min 828 W/m² 6,4 km/h (2 Bft) 97,87 %
25.04.2026 12:32 11,9 °C 22,2 °C 17,2 °C 73 % 1021,5 hPa 0,0 l/m² 2 min 832 W/m² 6,4 km/h (2 Bft) 96,08 %
25.04.2026 12:34 12,0 °C 22,8 °C 17,8 °C 74 % 1021,4 hPa 0,0 l/m² 2 min 833 W/m² 6,4 km/h (2 Bft) 96,00 %
25.04.2026 12:36 12,1 °C 22,8 °C 18,3 °C 73 % 1021,4 hPa 0,0 l/m² 2 min 832 W/m² 12,9 km/h (3 Bft) 97,87 %
25.04.2026 12:38 12,2 °C 22,2 °C 18,3 °C 73 % 1021,4 hPa 0,0 l/m² 2 min 832 W/m² 9,7 km/h (2 Bft) 97,87 %
25.04.2026 12:40 12,3 °C 22,2 °C 18,3 °C 72 % 1021,4 hPa 0,0 l/m² 2 min 836 W/m² 12,9 km/h (3 Bft) 97,96 %
25.04.2026 12:42 12,4 °C 23,3 °C 17,8 °C 72 % 1021,5 hPa 0,0 l/m² 2 min 840 W/m² 6,4 km/h (2 Bft) 95,74 %
25.04.2026 12:44 12,6 °C 23,9 °C 18,3 °C 72 % 1021,5 hPa 0,0 l/m² 2 min 840 W/m² 9,7 km/h (2 Bft) 97,87 %
25.04.2026 12:46 12,8 °C 23,9 °C 19,4 °C 71 % 1021,5 hPa 0,0 l/m² 2 min 840 W/m² 9,7 km/h (2 Bft) 97,37 %
25.04.2026 12:48 12,9 °C 23,9 °C 19,4 °C 70 % 1021,5 hPa 0,0 l/m² 2 min 845 W/m² 9,7 km/h (2 Bft) 95,74 %
25.04.2026 12:50 12,9 °C 23,3 °C 19,4 °C 69 % 1021,4 hPa 0,0 l/m² 2 min 844 W/m² 6,4 km/h (2 Bft) 93,62 %
25.04.2026 12:52 13,1 °C 23,3 °C 20,0 °C 69 % 1021,5 hPa 0,0 l/m² 2 min 846 W/m² 9,7 km/h (2 Bft) 94,00 %
25.04.2026 12:54 13,2 °C 22,8 °C 20,0 °C 68 % 1021,5 hPa 0,0 l/m² 2 min 844 W/m² 16,1 km/h (3 Bft) 95,74 %
25.04.2026 12:56 13,3 °C 22,2 °C 20,0 °C 69 % 1021,5 hPa 0,0 l/m² 2 min 846 W/m² 9,7 km/h (2 Bft) 93,62 %
25.04.2026 12:58 13,4 °C 21,7 °C 20,0 °C 69 % 1021,5 hPa 0,0 l/m² 2 min 849 W/m² 9,7 km/h (2 Bft) 95,92 %
25.04.2026 13:00 13,6 °C 22,2 °C 20,6 °C 68 % 1021,5 hPa 0,0 l/m² 2 min 851 W/m² 12,9 km/h (3 Bft) 93,62 %
25.04.2026 13:02 13,6 °C 22,2 °C 20,0 °C 68 % 1021,5 hPa 0,0 l/m² 2 min 851 W/m² 12,9 km/h (3 Bft) 95,74 %
25.04.2026 13:04 13,6 °C 22,2 °C 20,6 °C 68 % 1021,5 hPa 0,0 l/m² 2 min 854 W/m² 6,4 km/h (2 Bft) 95,74 %
25.04.2026 13:06 13,6 °C 22,8 °C 21,1 °C 68 % 1021,4 hPa 0,0 l/m² 2 min 854 W/m² 6,4 km/h (2 Bft) 93,33 %
25.04.2026 13:08 13,7 °C 22,8 °C 21,1 °C 68 % 1021,4 hPa 0,0 l/m² 2 min 851 W/m² 12,9 km/h (3 Bft) 93,62 %
25.04.2026 13:10 13,9 °C 23,9 °C 20,6 °C 68 % 1021,4 hPa 0,0 l/m² 2 min 857 W/m² 9,7 km/h (2 Bft) 97,87 %
25.04.2026 13:12 14,0 °C 23,3 °C 19,4 °C 67 % 1021,4 hPa 0,0 l/m² 2 min 856 W/m² 12,9 km/h (3 Bft) 96,00 %
25.04.2026 13:14 14,1 °C 23,3 °C 20,0 °C 68 % 1021,4 hPa 0,0 l/m² 2 min 860 W/m² 12,9 km/h (3 Bft) 97,37 %
25.04.2026 13:16 14,2 °C 23,3 °C 20,6 °C 66 % 1021,4 hPa 0,0 l/m² 2 min 858 W/m² 12,9 km/h (3 Bft) 97,87 %
25.04.2026 13:18 14,3 °C 23,9 °C 20,6 °C 66 % 1021,4 hPa 0,0 l/m² 2 min 859 W/m² 6,4 km/h (2 Bft) 95,92 %
25.04.2026 13:20 14,3 °C 23,9 °C 21,7 °C 65 % 1021,3 hPa 0,0 l/m² 2 min 861 W/m² 6,4 km/h (2 Bft) 98,00 %
25.04.2026 13:22 14,3 °C 23,9 °C 21,1 °C 65 % 1021,3 hPa 0,0 l/m² 2 min 861 W/m² 9,7 km/h (2 Bft) 97,87 %
25.04.2026 13:24 14,3 °C 22,8 °C 20,6 °C 64 % 1021,3 hPa 0,0 l/m² 2 min 861 W/m² 6,4 km/h (2 Bft) 100,00 %
25.04.2026 13:26 14,3 °C 23,3 °C 20,6 °C 64 % 1021,3 hPa 0,0 l/m² 2 min 860 W/m² 9,7 km/h (2 Bft) 100,00 %
25.04.2026 13:28 14,5 °C 24,4 °C 21,7 °C 66 % 1021,3 hPa 0,0 l/m² 2 min 861 W/m² 6,4 km/h (2 Bft) 97,87 %
25.04.2026 13:30 14,6 °C 24,4 °C 21,7 °C 65 % 1021,3 hPa 0,0 l/m² 2 min 861 W/m² 9,7 km/h (2 Bft) 100,00 %
25.04.2026 13:32 14,7 °C 25,0 °C 22,8 °C 66 % 1021,3 hPa 0,0 l/m² 2 min 863 W/m² 9,7 km/h (2 Bft) 100,00 %
25.04.2026 13:34 14,8 °C 25,0 °C 21,7 °C 64 % 1021,3 hPa 0,0 l/m² 2 min 860 W/m² 12,9 km/h (3 Bft) 100,00 %
25.04.2026 13:36 14,9 °C 25,0 °C 21,7 °C 63 % 1021,3 hPa 0,0 l/m² 2 min 858 W/m² 12,9 km/h (3 Bft) 100,00 %
25.04.2026 13:38 14,9 °C 23,3 °C 21,7 °C 63 % 1021,2 hPa 0,0 l/m² 2 min 860 W/m² 12,9 km/h (3 Bft) 100,00 %
25.04.2026 13:40 14,9 °C 23,9 °C 21,1 °C 64 % 1021,2 hPa 0,0 l/m² 2 min 854 W/m² 6,4 km/h (2 Bft) 100,00 %
25.04.2026 13:42 14,9 °C 24,4 °C 20,6 °C 64 % 1021,2 hPa 0,0 l/m² 2 min 859 W/m² 6,4 km/h (2 Bft) 97,87 %
25.04.2026 13:44 15,0 °C 23,9 °C 19,4 °C 64 % 1021,2 hPa 0,0 l/m² 2 min 867 W/m² 16,1 km/h (3 Bft) 100,00 %
25.04.2026 13:46 15,0 °C 23,9 °C 17,8 °C 63 % 1021,2 hPa 0,0 l/m² 2 min 861 W/m² 12,9 km/h (3 Bft) 100,00 %
25.04.2026 13:48 15,1 °C 23,9 °C 16,7 °C 63 % 1021,2 hPa 0,0 l/m² 2 min 856 W/m² 12,9 km/h (3 Bft) 100,00 %
25.04.2026 13:50 15,2 °C 23,9 °C 16,1 °C 62 % 1021,1 hPa 0,0 l/m² 2 min 861 W/m² 3,2 km/h (1 Bft) 100,00 %
25.04.2026 13:52 15,3 °C 25,0 °C 15,6 °C 63 % 1021,1 hPa 0,0 l/m² 2 min 857 W/m² 6,4 km/h (2 Bft) 100,00 %
25.04.2026 13:54 15,4 °C 24,4 °C 14,4 °C 62 % 1021,0 hPa 0,0 l/m² 2 min 856 W/m² 9,7 km/h (2 Bft) 97,87 %
25.04.2026 13:56 15,4 °C 23,9 °C 13,9 °C 61 % 1021,1 hPa 0,0 l/m² 2 min 857 W/m² 12,9 km/h (3 Bft) 100,00 %
25.04.2026 13:58 15,4 °C 24,4 °C 13,3 °C 62 % 1021,0 hPa 0,0 l/m² 2 min 859 W/m² 12,9 km/h (3 Bft) 95,74 %
25.04.2026 14:00 15,6 °C 25,0 °C 13,3 °C 62 % 1021,0 hPa 0,0 l/m² 2 min 854 W/m² 9,7 km/h (2 Bft) 100,00 %
25.04.2026 14:02 15,6 °C 24,4 °C 13,3 °C 61 % 1021,0 hPa 0,0 l/m² 2 min 854 W/m² 6,4 km/h (2 Bft) 97,87 %
25.04.2026 14:04 15,7 °C 24,4 °C 13,3 °C 61 % 1021,0 hPa 0,0 l/m² 2 min 848 W/m² 6,4 km/h (2 Bft) 97,87 %
25.04.2026 14:06 15,8 °C 25,0 °C 12,8 °C 61 % 1020,9 hPa 0,0 l/m² 2 min 855 W/m² 16,1 km/h (3 Bft) 100,00 %
25.04.2026 14:08 15,9 °C 25,0 °C 12,8 °C 59 % 1020,9 hPa 0,0 l/m² 2 min 856 W/m² 6,4 km/h (2 Bft) 100,00 %
25.04.2026 14:10 16,0 °C 26,1 °C 12,8 °C 59 % 1020,9 hPa 0,0 l/m² 2 min 854 W/m² 12,9 km/h (3 Bft) 100,00 %
25.04.2026 14:12 16,2 °C 26,1 °C 12,8 °C 59 % 1020,9 hPa 0,0 l/m² 2 min 853 W/m² 12,9 km/h (3 Bft) 100,00 %
25.04.2026 14:14 16,2 °C 26,1 °C 12,8 °C 59 % 1020,9 hPa 0,0 l/m² 2 min 858 W/m² 9,7 km/h (2 Bft) 95,74 %
25.04.2026 14:16 16,3 °C 25,6 °C 12,8 °C 58 % 1020,9 hPa 0,0 l/m² 2 min 857 W/m² 12,9 km/h (3 Bft) 97,87 %
25.04.2026 14:18 16,4 °C 25,6 °C 12,8 °C 58 % 1020,9 hPa 0,0 l/m² 2 min 849 W/m² 12,9 km/h (3 Bft) 97,87 %
25.04.2026 14:20 16,5 °C 24,4 °C 12,8 °C 57 % 1020,9 hPa 0,0 l/m² 2 min 847 W/m² 9,7 km/h (2 Bft) 100,00 %
25.04.2026 14:22 16,4 °C 23,9 °C 12,8 °C 58 % 1021,0 hPa 0,0 l/m² 2 min 847 W/m² 6,4 km/h (2 Bft) 100,00 %
25.04.2026 14:24 16,4 °C 25,6 °C 12,8 °C 58 % 1020,9 hPa 0,0 l/m² 2 min 843 W/m² 6,4 km/h (2 Bft) 95,65 %
25.04.2026 14:26 16,6 °C 26,1 °C 12,8 °C 58 % 1020,9 hPa 0,0 l/m² 2 min 843 W/m² 9,7 km/h (2 Bft) 100,00 %
25.04.2026 14:28 16,6 °C 25,6 °C 13,3 °C 57 % 1020,8 hPa 0,0 l/m² 2 min 841 W/m² 9,7 km/h (2 Bft) 100,00 %
25.04.2026 14:30 16,7 °C 25,6 °C 13,3 °C 57 % 1020,8 hPa 0,0 l/m² 2 min 838 W/m² 9,7 km/h (2 Bft) 100,00 %
25.04.2026 14:32 16,7 °C 25,0 °C 13,3 °C 58 % 1020,8 hPa 0,0 l/m² 2 min 841 W/m² 12,9 km/h (3 Bft) 100,00 %
25.04.2026 14:34 16,7 °C 25,0 °C 12,8 °C 57 % 1020,7 hPa 0,0 l/m² 2 min 838 W/m² 16,1 km/h (3 Bft) 97,87 %
25.04.2026 14:36 16,8 °C 25,0 °C 12,8 °C 58 % 1020,7 hPa 0,0 l/m² 2 min 833 W/m² 9,7 km/h (2 Bft) 100,00 %
25.04.2026 14:38 16,8 °C 25,6 °C 13,3 °C 58 % 1020,7 hPa 0,0 l/m² 2 min 828 W/m² 19,3 km/h (3 Bft) 95,74 %
25.04.2026 14:40 17,0 °C 26,7 °C 13,3 °C 57 % 1020,7 hPa 0,0 l/m² 2 min 828 W/m² 12,9 km/h (3 Bft) 97,87 %
25.04.2026 14:42 17,1 °C 26,1 °C 13,3 °C 56 % 1020,7 hPa 0,0 l/m² 2 min 823 W/m² 9,7 km/h (2 Bft) 97,87 %
25.04.2026 14:44 17,3 °C 26,7 °C 13,3 °C 57 % 1020,7 hPa 0,0 l/m² 2 min 830 W/m² 16,1 km/h (3 Bft) 95,92 %
25.04.2026 14:46 17,5 °C 26,7 °C 13,9 °C 56 % 1020,7 hPa 0,0 l/m² 2 min 825 W/m² 6,4 km/h (2 Bft) 93,62 %
25.04.2026 14:48 17,6 °C 26,1 °C 13,9 °C 55 % 1020,7 hPa 0,0 l/m² 2 min 819 W/m² 9,7 km/h (2 Bft) 95,74 %
25.04.2026 14:50 17,7 °C 26,7 °C 13,9 °C 56 % 1020,7 hPa 0,0 l/m² 2 min 817 W/m² 6,4 km/h (2 Bft) 96,00 %
25.04.2026 14:52 17,9 °C 27,2 °C 13,9 °C 55 % 1020,7 hPa 0,0 l/m² 2 min 817 W/m² 16,1 km/h (3 Bft) 95,74 %
25.04.2026 14:54 18,0 °C 27,2 °C 13,9 °C 53 % 1020,7 hPa 0,0 l/m² 2 min 818 W/m² 12,9 km/h (3 Bft) 95,65 %
25.04.2026 14:56 18,0 °C 26,1 °C 13,9 °C 53 % 1020,6 hPa 0,0 l/m² 2 min 813 W/m² 12,9 km/h (3 Bft) 95,16 %
25.04.2026 14:58 17,9 °C 25,0 °C 13,9 °C 52 % 1020,6 hPa 0,0 l/m² 2 min 807 W/m² 12,9 km/h (3 Bft) 95,74 %
25.04.2026 15:00 17,9 °C 25,6 °C 13,9 °C 51 % 1020,6 hPa 0,0 l/m² 2 min 798 W/m² 6,4 km/h (2 Bft) 95,74 %
25.04.2026 15:02 17,9 °C 25,0 °C 13,9 °C 53 % 1020,6 hPa 0,0 l/m² 2 min 798 W/m² 12,9 km/h (3 Bft) 91,84 %
25.04.2026 15:04 17,9 °C 25,0 °C 13,9 °C 53 % 1020,6 hPa 0,0 l/m² 2 min 793 W/m² 12,9 km/h (3 Bft) 92,00 %
25.04.2026 15:06 17,9 °C 25,0 °C 13,9 °C 54 % 1020,6 hPa 0,0 l/m² 2 min 796 W/m² 12,9 km/h (3 Bft) 93,62 %
25.04.2026 15:08 18,0 °C 25,6 °C 13,9 °C 53 % 1020,6 hPa 0,0 l/m² 2 min 790 W/m² 3,2 km/h (1 Bft) 92,86 %
25.04.2026 15:10 18,0 °C 26,1 °C 13,9 °C 52 % 1020,5 hPa 0,0 l/m² 2 min 794 W/m² 6,4 km/h (2 Bft) 92,00 %
25.04.2026 15:12 18,1 °C 25,6 °C 13,9 °C 52 % 1020,5 hPa 0,0 l/m² 2 min 788 W/m² 9,7 km/h (2 Bft) 92,86 %
25.04.2026 15:14 18,1 °C 25,0 °C 13,9 °C 53 % 1020,4 hPa 0,0 l/m² 2 min 781 W/m² 9,7 km/h (2 Bft) 95,74 %
25.04.2026 15:16 18,1 °C 25,0 °C 13,9 °C 53 % 1020,4 hPa 0,0 l/m² 2 min 779 W/m² 12,9 km/h (3 Bft) 93,48 %
25.04.2026 15:18 18,1 °C 25,0 °C 13,9 °C 53 % 1020,5 hPa 0,0 l/m² 2 min 774 W/m² 9,7 km/h (2 Bft) 93,62 %
25.04.2026 15:20 18,1 °C 25,6 °C 14,4 °C 53 % 1020,4 hPa 0,0 l/m² 2 min 776 W/m² 12,9 km/h (3 Bft) 93,62 %
25.04.2026 15:22 18,2 °C 25,6 °C 14,4 °C 53 % 1020,4 hPa 0,0 l/m² 2 min 777 W/m² 12,9 km/h (3 Bft) 95,74 %
25.04.2026 15:24 18,4 °C 25,6 °C 15,0 °C 54 % 1020,4 hPa 0,0 l/m² 2 min 774 W/m² 16,1 km/h (3 Bft) 95,74 %
25.04.2026 15:26 18,4 °C 25,6 °C 15,0 °C 51 % 1020,3 hPa 0,0 l/m² 2 min 771 W/m² 16,1 km/h (3 Bft) 96,00 %
25.04.2026 15:28 18,6 °C 25,0 °C 15,0 °C 51 % 1020,3 hPa 0,0 l/m² 2 min 766 W/m² 9,7 km/h (2 Bft) 94,00 %
25.04.2026 15:30 18,6 °C 25,0 °C 14,4 °C 50 % 1020,2 hPa 0,0 l/m² 2 min 768 W/m² 6,4 km/h (2 Bft) 95,92 %
25.04.2026 15:32 18,6 °C 25,6 °C 15,0 °C 49 % 1020,2 hPa 0,0 l/m² 2 min 762 W/m² 6,4 km/h (2 Bft) 86,11 %
25.04.2026 15:34 18,7 °C 25,6 °C 15,0 °C 50 % 1020,1 hPa 0,0 l/m² 2 min 766 W/m² 12,9 km/h (3 Bft) 95,92 %
25.04.2026 15:36 18,8 °C 25,6 °C 15,0 °C 50 % 1020,1 hPa 0,0 l/m² 2 min 762 W/m² 9,7 km/h (2 Bft) 95,74 %
25.04.2026 15:38 18,9 °C 25,0 °C 15,0 °C 45 % 1020,1 hPa 0,0 l/m² 2 min 760 W/m² 19,3 km/h (3 Bft) 94,00 %
25.04.2026 15:40 19,0 °C 25,6 °C 15,6 °C 44 % 1020,1 hPa 0,0 l/m² 2 min 758 W/m² 12,9 km/h (3 Bft) 93,62 %
25.04.2026 15:42 18,9 °C 23,9 °C 15,0 °C 43 % 1020,2 hPa 0,0 l/m² 2 min 751 W/m² 12,9 km/h (3 Bft) 94,34 %
25.04.2026 15:44 18,8 °C 23,9 °C 15,0 °C 44 % 1020,1 hPa 0,0 l/m² 2 min 745 W/m² 19,3 km/h (3 Bft) 100,00 %
25.04.2026 15:46 18,8 °C 24,4 °C 15,0 °C 44 % 1020,1 hPa 0,0 l/m² 2 min 745 W/m² 12,9 km/h (3 Bft) 97,96 %
25.04.2026 15:48 18,8 °C 23,9 °C 15,0 °C 43 % 1020,0 hPa 0,0 l/m² 2 min 739 W/m² 9,7 km/h (2 Bft) 100,00 %
25.04.2026 15:50 18,8 °C 25,0 °C 15,0 °C 44 % 1020,1 hPa 0,0 l/m² 2 min 734 W/m² 12,9 km/h (3 Bft) 97,37 %
25.04.2026 15:52 18,9 °C 25,0 °C 15,0 °C 43 % 1020,1 hPa 0,0 l/m² 2 min 733 W/m² 6,4 km/h (2 Bft) 100,00 %
25.04.2026 15:54 18,9 °C 24,4 °C 15,0 °C 44 % 1020,1 hPa 0,0 l/m² 2 min 729 W/m² 6,4 km/h (2 Bft) 100,00 %
25.04.2026 15:56 18,9 °C 25,0 °C 15,0 °C 43 % 1020,1 hPa 0,0 l/m² 2 min 726 W/m² 9,7 km/h (2 Bft) 97,87 %
25.04.2026 15:58 18,9 °C 25,6 °C 15,0 °C 43 % 1020,1 hPa 0,0 l/m² 2 min 719 W/m² 12,9 km/h (3 Bft) 100,00 %
25.04.2026 16:00 19,1 °C 25,6 °C 15,0 °C 43 % 1020,1 hPa 0,0 l/m² 2 min 718 W/m² 12,9 km/h (3 Bft) 93,62 %
25.04.2026 16:02 19,1 °C 25,6 °C 15,6 °C 42 % 1020,1 hPa 0,0 l/m² 2 min 714 W/m² 12,9 km/h (3 Bft) 100,00 %
25.04.2026 16:04 19,1 °C 25,0 °C 15,6 °C 44 % 1020,0 hPa 0,0 l/m² 2 min 706 W/m² 9,7 km/h (2 Bft) 100,00 %
25.04.2026 16:06 19,2 °C 25,0 °C 15,6 °C 43 % 1020,0 hPa 0,0 l/m² 2 min 700 W/m² 12,9 km/h (3 Bft) 100,00 %
25.04.2026 16:08 19,2 °C 24,4 °C 15,6 °C 44 % 1020,1 hPa 0,0 l/m² 2 min 694 W/m² 16,1 km/h (3 Bft) 97,87 %
25.04.2026 16:10 19,0 °C 23,9 °C 15,0 °C 44 % 1020,1 hPa 0,0 l/m² 2 min 692 W/m² 12,9 km/h (3 Bft) 100,00 %
25.04.2026 16:12 19,0 °C 23,9 °C 15,6 °C 44 % 1020,1 hPa 0,0 l/m² 2 min 687 W/m² 19,3 km/h (3 Bft) 97,37 %
25.04.2026 16:14 19,0 °C 23,9 °C 15,6 °C 45 % 1020,1 hPa 0,0 l/m² 2 min 684 W/m² 16,1 km/h (3 Bft) 97,87 %
25.04.2026 16:16 19,1 °C 24,4 °C 15,6 °C 44 % 1020,0 hPa 0,0 l/m² 2 min 677 W/m² 22,5 km/h (4 Bft) 97,87 %
25.04.2026 16:18 19,2 °C 25,6 °C 16,1 °C 46 % 1020,0 hPa 0,0 l/m² 2 min 672 W/m² 12,9 km/h (3 Bft) 100,00 %
25.04.2026 16:20 19,2 °C 24,4 °C 16,1 °C 45 % 1020,0 hPa 0,0 l/m² 2 min 665 W/m² 12,9 km/h (3 Bft) 97,83 %
25.04.2026 16:22 19,2 °C 23,9 °C 15,6 °C 45 % 1020,0 hPa 0,0 l/m² 2 min 664 W/m² 16,1 km/h (3 Bft) 100,00 %
25.04.2026 16:24 19,2 °C 24,4 °C 15,6 °C 45 % 1020,0 hPa 0,0 l/m² 2 min 663 W/m² 6,4 km/h (2 Bft) 100,00 %
25.04.2026 16:26 19,2 °C 23,3 °C 15,0 °C 45 % 1020,0 hPa 0,0 l/m² 2 min 658 W/m² 12,9 km/h (3 Bft) 100,00 %
25.04.2026 16:28 19,1 °C 23,3 °C 15,6 °C 45 % 1019,9 hPa 0,0 l/m² 2 min 654 W/m² 12,9 km/h (3 Bft) 97,87 %
25.04.2026 16:30 19,1 °C 23,3 °C 15,0 °C 46 % 1019,9 hPa 0,0 l/m² 2 min 649 W/m² 12,9 km/h (3 Bft) 100,00 %
25.04.2026 16:32 19,2 °C 23,9 °C 15,6 °C 45 % 1019,9 hPa 0,0 l/m² 2 min 642 W/m² 9,7 km/h (2 Bft) 97,87 %
25.04.2026 16:34 19,2 °C 23,9 °C 15,6 °C 44 % 1019,9 hPa 0,0 l/m² 2 min 635 W/m² 9,7 km/h (2 Bft) 100,00 %
25.04.2026 16:36 19,1 °C 23,3 °C 15,0 °C 44 % 1019,9 hPa 0,0 l/m² 2 min 634 W/m² 12,9 km/h (3 Bft) 100,00 %
25.04.2026 16:38 19,1 °C 23,9 °C 15,6 °C 46 % 1019,8 hPa 0,0 l/m² 2 min 633 W/m² 9,7 km/h (2 Bft) 95,65 %
25.04.2026 16:40 19,2 °C 23,9 °C 15,6 °C 45 % 1019,8 hPa 0,0 l/m² 2 min 623 W/m² 16,1 km/h (3 Bft) 100,00 %
25.04.2026 16:42 19,2 °C 24,4 °C 15,6 °C 46 % 1019,8 hPa 0,0 l/m² 2 min 619 W/m² 16,1 km/h (3 Bft) 100,00 %
25.04.2026 16:44 19,3 °C 25,0 °C 16,1 °C 46 % 1019,9 hPa 0,0 l/m² 2 min 613 W/m² 16,1 km/h (3 Bft) 100,00 %
25.04.2026 16:46 19,3 °C 25,0 °C 16,1 °C 44 % 1019,8 hPa 0,0 l/m² 2 min 608 W/m² 9,7 km/h (2 Bft) 97,87 %
25.04.2026 16:48 19,4 °C 25,6 °C 16,1 °C 45 % 1019,8 hPa 0,0 l/m² 2 min 606 W/m² 6,4 km/h (2 Bft) 100,00 %
25.04.2026 16:50 19,6 °C 25,6 °C 16,1 °C 45 % 1019,8 hPa 0,0 l/m² 2 min 605 W/m² 6,4 km/h (2 Bft) 100,00 %
25.04.2026 16:52 19,7 °C 26,1 °C 16,1 °C 46 % 1019,8 hPa 0,0 l/m² 2 min 600 W/m² 3,2 km/h (1 Bft) 93,62 %
25.04.2026 16:54 19,7 °C 25,6 °C 16,1 °C 44 % 1019,8 hPa 0,0 l/m² 2 min 592 W/m² 12,9 km/h (3 Bft) 97,87 %
25.04.2026 16:56 19,8 °C 24,4 °C 16,1 °C 43 % 1019,7 hPa 0,0 l/m² 2 min 585 W/m² 12,9 km/h (3 Bft) 95,65 %
25.04.2026 16:58 19,7 °C 23,9 °C 15,6 °C 44 % 1019,7 hPa 0,0 l/m² 2 min 581 W/m² 9,7 km/h (2 Bft) 97,87 %
25.04.2026 17:00 19,7 °C 24,4 °C 16,1 °C 43 % 1019,7 hPa 0,0 l/m² 2 min 576 W/m² 9,7 km/h (2 Bft) 96,49 %
25.04.2026 17:02 19,8 °C 24,4 °C 16,1 °C 43 % 1019,7 hPa 0,0 l/m² 2 min 572 W/m² 12,9 km/h (3 Bft) 97,14 %
25.04.2026 17:04 19,8 °C 23,9 °C 15,6 °C 43 % 1019,6 hPa 0,0 l/m² 2 min 567 W/m² 9,7 km/h (2 Bft) 96,00 %
25.04.2026 17:06 19,7 °C 23,9 °C 16,1 °C 43 % 1019,6 hPa 0,0 l/m² 2 min 566 W/m² 12,9 km/h (3 Bft) 98,31 %
25.04.2026 17:08 19,7 °C 25,0 °C 16,1 °C 43 % 1019,7 hPa 0,0 l/m² 2 min 557 W/m² 9,7 km/h (2 Bft) 97,14 %
25.04.2026 17:10 19,8 °C 25,0 °C 16,7 °C 42 % 1019,7 hPa 0,0 l/m² 2 min 552 W/m² 12,9 km/h (3 Bft) 97,96 %
25.04.2026 17:12 19,9 °C 25,6 °C 16,7 °C 41 % 1019,7 hPa 0,0 l/m² 2 min 548 W/m² 16,1 km/h (3 Bft) 97,87 %
25.04.2026 17:14 19,9 °C 25,0 °C 16,7 °C 40 % 1019,7 hPa 0,0 l/m² 2 min 539 W/m² 12,9 km/h (3 Bft) 95,45 %
25.04.2026 17:16 19,8 °C 23,9 °C 16,1 °C 40 % 1019,8 hPa 0,0 l/m² 2 min 536 W/m² 12,9 km/h (3 Bft) 98,00 %
25.04.2026 17:18 19,7 °C 24,4 °C 15,6 °C 39 % 1019,7 hPa 0,0 l/m² 2 min 530 W/m² 6,4 km/h (2 Bft) 97,87 %
25.04.2026 17:20 19,7 °C 25,0 °C 15,6 °C 39 % 1019,7 hPa 0,0 l/m² 2 min 527 W/m² 6,4 km/h (2 Bft) 98,11 %
25.04.2026 17:22 19,7 °C 24,4 °C 15,6 °C 40 % 1019,7 hPa 0,0 l/m² 2 min 522 W/m² 9,7 km/h (2 Bft) 95,74 %
25.04.2026 17:24 19,7 °C 24,4 °C 16,1 °C 39 % 1019,6 hPa 0,0 l/m² 2 min 511 W/m² 19,3 km/h (3 Bft) 100,00 %
25.04.2026 17:26 19,7 °C 24,4 °C 16,1 °C 39 % 1019,6 hPa 0,0 l/m² 2 min 506 W/m² 12,9 km/h (3 Bft) 96,23 %
25.04.2026 17:28 19,7 °C 24,4 °C 16,1 °C 39 % 1019,6 hPa 0,0 l/m² 2 min 503 W/m² 9,7 km/h (2 Bft) 95,65 %
25.04.2026 17:30 19,7 °C 24,4 °C 16,1 °C 40 % 1019,6 hPa 0,0 l/m² 2 min 497 W/m² 16,1 km/h (3 Bft) 97,87 %
25.04.2026 17:32 19,8 °C 25,0 °C 16,1 °C 41 % 1019,6 hPa 0,0 l/m² 2 min 491 W/m² 9,7 km/h (2 Bft) 100,00 %
25.04.2026 17:34 19,8 °C 25,0 °C 16,1 °C 41 % 1019,6 hPa 0,0 l/m² 2 min 487 W/m² 9,7 km/h (2 Bft) 100,00 %
25.04.2026 17:36 19,8 °C 25,0 °C 16,7 °C 41 % 1019,6 hPa 0,0 l/m² 2 min 482 W/m² 19,3 km/h (3 Bft) 97,87 %
25.04.2026 17:38 19,8 °C 23,9 °C 16,1 °C 40 % 1019,6 hPa 0,0 l/m² 2 min 477 W/m² 16,1 km/h (3 Bft) 97,87 %
25.04.2026 17:40 19,7 °C 23,9 °C 16,1 °C 38 % 1019,6 hPa 0,0 l/m² 2 min 469 W/m² 12,9 km/h (3 Bft) 95,74 %
25.04.2026 17:42 19,7 °C 23,9 °C 16,1 °C 39 % 1019,5 hPa 0,0 l/m² 2 min 466 W/m² 6,4 km/h (2 Bft) 98,08 %
25.04.2026 17:44 19,6 °C 23,9 °C 16,1 °C 40 % 1019,6 hPa 0,0 l/m² 2 min 460 W/m² 9,7 km/h (2 Bft) 97,22 %
25.04.2026 17:46 19,6 °C 24,4 °C 16,1 °C 39 % 1019,5 hPa 0,0 l/m² 2 min 454 W/m² 12,9 km/h (3 Bft) 97,83 %
25.04.2026 17:48 19,6 °C 23,9 °C 16,1 °C 40 % 1019,5 hPa 0,0 l/m² 2 min 445 W/m² 9,7 km/h (2 Bft) 95,74 %
25.04.2026 17:50 19,7 °C 24,4 °C 16,1 °C 40 % 1019,5 hPa 0,0 l/m² 2 min 440 W/m² 12,9 km/h (3 Bft) 98,00 %
25.04.2026 17:52 19,7 °C 25,0 °C 16,1 °C 41 % 1019,5 hPa 0,0 l/m² 2 min 433 W/m² 12,9 km/h (3 Bft) 98,11 %
25.04.2026 17:54 19,8 °C 24,4 °C 16,1 °C 40 % 1019,5 hPa 0,0 l/m² 2 min 432 W/m² 12,9 km/h (3 Bft) 97,87 %
25.04.2026 17:56 19,8 °C 23,9 °C 16,1 °C 41 % 1019,5 hPa 0,0 l/m² 2 min 422 W/m² 9,7 km/h (2 Bft) 94,74 %
25.04.2026 17:58 19,8 °C 23,9 °C 16,1 °C 41 % 1019,5 hPa 0,0 l/m² 2 min 418 W/m² 16,1 km/h (3 Bft) 97,87 %
25.04.2026 18:00 19,8 °C 23,9 °C 16,1 °C 40 % 1019,5 hPa 0,0 l/m² 2 min 410 W/m² 12,9 km/h (3 Bft) 97,87 %
25.04.2026 18:02 19,7 °C 23,3 °C 15,6 °C 40 % 1019,5 hPa 0,0 l/m² 2 min 404 W/m² 6,4 km/h (2 Bft) 97,83 %
25.04.2026 18:04 19,7 °C 23,3 °C 16,1 °C 43 % 1019,5 hPa 0,0 l/m² 2 min 399 W/m² 6,4 km/h (2 Bft) 97,87 %
25.04.2026 18:06 19,7 °C 23,3 °C 16,1 °C 40 % 1019,5 hPa 0,0 l/m² 2 min 394 W/m² 12,9 km/h (3 Bft) 93,22 %
25.04.2026 18:08 19,7 °C 24,4 °C 16,1 °C 40 % 1019,5 hPa 0,0 l/m² 2 min 388 W/m² 12,9 km/h (3 Bft) 97,14 %
25.04.2026 18:10 19,7 °C 24,4 °C 16,7 °C 40 % 1019,5 hPa 0,0 l/m² 2 min 383 W/m² 16,1 km/h (3 Bft) 98,00 %
25.04.2026 18:12 19,7 °C 24,4 °C 16,1 °C 39 % 1019,4 hPa 0,0 l/m² 2 min 377 W/m² 9,7 km/h (2 Bft) 98,00 %
25.04.2026 18:14 19,8 °C 25,0 °C 16,7 °C 40 % 1019,5 hPa 0,0 l/m² 2 min 373 W/m² 9,7 km/h (2 Bft) 97,87 %
25.04.2026 18:16 19,8 °C 24,4 °C 16,1 °C 40 % 1019,5 hPa 0,0 l/m² 2 min 367 W/m² 12,9 km/h (3 Bft) 95,74 %
25.04.2026 18:18 19,8 °C 24,4 °C 16,1 °C 41 % 1019,5 hPa 0,0 l/m² 2 min 361 W/m² 16,1 km/h (3 Bft) 97,83 %
25.04.2026 18:20 19,8 °C 23,9 °C 16,1 °C 41 % 1019,4 hPa 0,0 l/m² 2 min 355 W/m² 16,1 km/h (3 Bft) 95,74 %
25.04.2026 18:22 19,8 °C 23,9 °C 16,1 °C 41 % 1019,4 hPa 0,0 l/m² 2 min 349 W/m² 12,9 km/h (3 Bft) 93,62 %
25.04.2026 18:24 19,7 °C 23,3 °C 15,6 °C 41 % 1019,5 hPa 0,0 l/m² 2 min 342 W/m² 9,7 km/h (2 Bft) 96,00 %
25.04.2026 18:26 19,6 °C 23,3 °C 15,6 °C 42 % 1019,4 hPa 0,0 l/m² 2 min 336 W/m² 12,9 km/h (3 Bft) 97,87 %
25.04.2026 18:28 19,6 °C 23,3 °C 15,6 °C 42 % 1019,4 hPa 0,0 l/m² 2 min 331 W/m² 9,7 km/h (2 Bft) 97,87 %
25.04.2026 18:30 19,6 °C 24,4 °C 15,6 °C 42 % 1019,5 hPa 0,0 l/m² 2 min 324 W/m² 12,9 km/h (3 Bft) 97,14 %
25.04.2026 18:32 19,6 °C 24,4 °C 15,6 °C 40 % 1019,5 hPa 0,0 l/m² 2 min 317 W/m² 12,9 km/h (3 Bft) 96,00 %
25.04.2026 18:34 19,6 °C 25,0 °C 15,6 °C 37 % 1019,4 hPa 0,0 l/m² 2 min 313 W/m² 22,5 km/h (4 Bft) 95,74 %
25.04.2026 18:36 19,6 °C 25,0 °C 15,6 °C 37 % 1019,4 hPa 0,0 l/m² 2 min 308 W/m² 12,9 km/h (3 Bft) 97,87 %
25.04.2026 18:38 19,6 °C 24,4 °C 15,6 °C 36 % 1019,5 hPa 0,0 l/m² 2 min 302 W/m² 16,1 km/h (3 Bft) 97,96 %
25.04.2026 18:40 19,6 °C 22,8 °C 15,0 °C 34 % 1019,5 hPa 0,0 l/m² 2 min 295 W/m² 19,3 km/h (3 Bft) 98,11 %
25.04.2026 18:42 19,5 °C 21,1 °C 15,0 °C 34 % 1019,6 hPa 0,0 l/m² 2 min 286 W/m² 19,3 km/h (3 Bft) 97,87 %
25.04.2026 18:44 19,5 °C 20,0 °C 15,0 °C 34 % 1019,6 hPa 0,0 l/m² 2 min 277 W/m² 19,3 km/h (3 Bft) 97,37 %
25.04.2026 18:46 19,4 °C 19,4 °C 15,0 °C 35 % 1019,6 hPa 0,0 l/m² 2 min 270 W/m² 19,3 km/h (3 Bft) 95,74 %
25.04.2026 18:48 19,4 °C 18,9 °C 15,0 °C 35 % 1019,6 hPa 0,0 l/m² 2 min 263 W/m² 16,1 km/h (3 Bft) 97,87 %
25.04.2026 18:50 19,3 °C 18,9 °C 15,0 °C 35 % 1019,6 hPa 0,0 l/m² 2 min 255 W/m² 12,9 km/h (3 Bft) 96,23 %
25.04.2026 18:52 19,3 °C 18,9 °C 14,4 °C 36 % 1019,6 hPa 0,0 l/m² 2 min 247 W/m² 22,5 km/h (4 Bft) 95,65 %
25.04.2026 18:54 19,2 °C 18,3 °C 14,4 °C 36 % 1019,6 hPa 0,0 l/m² 2 min 238 W/m² 19,3 km/h (3 Bft) 98,00 %
25.04.2026 18:56 19,2 °C 18,3 °C 14,4 °C 36 % 1019,7 hPa 0,0 l/m² 2 min 213 W/m² 9,7 km/h (2 Bft) 92,11 %
25.04.2026 18:58 19,1 °C 18,3 °C 14,4 °C 37 % 1019,7 hPa 0,0 l/m² 0 min 115 W/m² 25,7 km/h (4 Bft) 97,87 %
25.04.2026 19:00 19,1 °C 18,3 °C 13,9 °C 37 % 1019,7 hPa 0,0 l/m² 0 min 48 W/m² 12,9 km/h (3 Bft) 96,00 %
25.04.2026 19:02 19,0 °C 18,3 °C 13,9 °C 37 % 1019,7 hPa 0,0 l/m² 0 min 44 W/m² 12,9 km/h (3 Bft) 98,00 %
25.04.2026 19:04 18,8 °C 17,8 °C 13,9 °C 38 % 1019,7 hPa 0,0 l/m² 0 min 42 W/m² 12,9 km/h (3 Bft) 97,87 %
25.04.2026 19:06 18,7 °C 17,8 °C 13,9 °C 38 % 1019,7 hPa 0,0 l/m² 0 min 42 W/m² 12,9 km/h (3 Bft) 97,87 %
25.04.2026 19:08 18,6 °C 17,8 °C 13,9 °C 38 % 1019,7 hPa 0,0 l/m² 0 min 41 W/m² 16,1 km/h (3 Bft) 95,74 %
25.04.2026 19:10 18,6 °C 17,8 °C 13,9 °C 39 % 1019,7 hPa 0,0 l/m² 0 min 40 W/m² 6,4 km/h (2 Bft) 97,83 %
25.04.2026 19:12 18,5 °C 17,8 °C 13,9 °C 40 % 1019,7 hPa 0,0 l/m² 0 min 40 W/m² 9,7 km/h (2 Bft) 95,74 %
25.04.2026 19:14 18,4 °C 17,8 °C 13,3 °C 41 % 1019,7 hPa 0,0 l/m² 0 min 39 W/m² 12,9 km/h (3 Bft) 97,87 %
25.04.2026 19:16 18,3 °C 17,8 °C 13,3 °C 41 % 1019,7 hPa 0,0 l/m² 0 min 39 W/m² 12,9 km/h (3 Bft) 95,74 %
25.04.2026 19:18 18,2 °C 17,2 °C 13,3 °C 41 % 1019,8 hPa 0,0 l/m² 0 min 39 W/m² 12,9 km/h (3 Bft) 97,87 %
25.04.2026 19:20 18,2 °C 17,2 °C 13,3 °C 42 % 1019,8 hPa 0,0 l/m² 0 min 39 W/m² 12,9 km/h (3 Bft) 97,87 %
25.04.2026 19:22 18,1 °C 17,2 °C 13,3 °C 42 % 1019,8 hPa 0,0 l/m² 0 min 38 W/m² 12,9 km/h (3 Bft) 97,87 %
25.04.2026 19:24 18,1 °C 17,2 °C 13,3 °C 42 % 1019,8 hPa 0,0 l/m² 0 min 37 W/m² 19,3 km/h (3 Bft) 97,37 %
25.04.2026 19:26 18,0 °C 17,2 °C 13,3 °C 42 % 1019,8 hPa 0,0 l/m² 0 min 37 W/m² 12,9 km/h (3 Bft) 97,87 %
25.04.2026 19:28 17,9 °C 17,2 °C 13,3 °C 43 % 1019,9 hPa 0,0 l/m² 0 min 35 W/m² 22,5 km/h (4 Bft) 96,43 %
25.04.2026 19:30 17,9 °C 17,2 °C 13,3 °C 44 % 1019,9 hPa 0,0 l/m² 0 min 35 W/m² 9,7 km/h (2 Bft) 97,87 %
25.04.2026 19:32 17,8 °C 16,7 °C 13,3 °C 43 % 1019,9 hPa 0,0 l/m² 0 min 35 W/m² 9,7 km/h (2 Bft) 97,37 %
25.04.2026 19:34 17,8 °C 16,7 °C 12,8 °C 44 % 1019,8 hPa 0,0 l/m² 0 min 33 W/m² 19,3 km/h (3 Bft) 97,87 %
25.04.2026 19:36 17,8 °C 16,7 °C 12,8 °C 44 % 1019,9 hPa 0,0 l/m² 0 min 33 W/m² 12,9 km/h (3 Bft) 98,11 %
25.04.2026 19:38 17,7 °C 16,7 °C 12,8 °C 44 % 1019,9 hPa 0,0 l/m² 0 min 33 W/m² 9,7 km/h (2 Bft) 95,65 %
25.04.2026 19:40 17,7 °C 16,7 °C 12,8 °C 45 % 1019,9 hPa 0,0 l/m² 0 min 32 W/m² 16,1 km/h (3 Bft) 97,06 %
25.04.2026 19:42 17,6 °C 16,7 °C 12,8 °C 45 % 1019,9 hPa 0,0 l/m² 0 min 31 W/m² 12,9 km/h (3 Bft) 97,87 %
25.04.2026 19:44 17,6 °C 16,7 °C 12,8 °C 45 % 1019,9 hPa 0,0 l/m² 0 min 30 W/m² 6,4 km/h (2 Bft) 100,00 %
25.04.2026 19:46 17,6 °C 16,7 °C 12,8 °C 46 % 1019,9 hPa 0,0 l/m² 0 min 29 W/m² 9,7 km/h (2 Bft) 100,00 %
25.04.2026 19:48 17,5 °C 16,1 °C 12,8 °C 46 % 1019,9 hPa 0,0 l/m² 0 min 28 W/m² 9,7 km/h (2 Bft) 100,00 %
25.04.2026 19:50 17,4 °C 16,1 °C 12,8 °C 46 % 1019,9 hPa 0,0 l/m² 0 min 26 W/m² 16,1 km/h (3 Bft) 100,00 %
25.04.2026 19:52 17,4 °C 16,1 °C 12,8 °C 46 % 1020,0 hPa 0,0 l/m² 0 min 26 W/m² 9,7 km/h (2 Bft) 98,39 %
25.04.2026 19:54 17,3 °C 16,1 °C 12,2 °C 46 % 1020,0 hPa 0,0 l/m² 0 min 25 W/m² 16,1 km/h (3 Bft) 100,00 %
25.04.2026 19:56 17,3 °C 16,1 °C 12,2 °C 46 % 1020,0 hPa 0,0 l/m² 0 min 23 W/m² 16,1 km/h (3 Bft) 100,00 %
25.04.2026 19:58 17,2 °C 16,1 °C 12,2 °C 47 % 1020,0 hPa 0,0 l/m² 0 min 23 W/m² 9,7 km/h (2 Bft) 100,00 %
25.04.2026 20:00 17,2 °C 16,1 °C 12,2 °C 47 % 1020,0 hPa 0,0 l/m² 0 min 21 W/m² 16,1 km/h (3 Bft) 97,37 %
25.04.2026 20:02 17,1 °C 16,1 °C 12,2 °C 47 % 1020,0 hPa 0,0 l/m² 0 min 20 W/m² 6,4 km/h (2 Bft) 97,87 %
25.04.2026 20:04 17,1 °C 16,1 °C 12,2 °C 47 % 1020,0 hPa 0,0 l/m² 0 min 19 W/m² 12,9 km/h (3 Bft) 100,00 %
25.04.2026 20:06 17,0 °C 15,6 °C 12,2 °C 48 % 1020,1 hPa 0,0 l/m² 0 min 19 W/m² 6,4 km/h (2 Bft) 100,00 %
25.04.2026 20:08 16,9 °C 15,6 °C 12,2 °C 47 % 1020,0 hPa 0,0 l/m² 0 min 19 W/m² 19,3 km/h (3 Bft) 100,00 %
25.04.2026 20:10 16,9 °C 15,6 °C 12,2 °C 47 % 1020,1 hPa 0,0 l/m² 0 min 18 W/m² 16,1 km/h (3 Bft) 100,00 %
25.04.2026 20:12 16,8 °C 15,6 °C 12,2 °C 48 % 1020,1 hPa 0,0 l/m² 0 min 18 W/m² 6,4 km/h (2 Bft) 97,87 %
25.04.2026 20:14 16,8 °C 15,6 °C 11,7 °C 48 % 1020,0 hPa 0,0 l/m² 0 min 18 W/m² 6,4 km/h (2 Bft) 97,87 %
25.04.2026 20:16 16,8 °C 15,6 °C 11,7 °C 48 % 1020,0 hPa 0,0 l/m² 0 min 16 W/m² 3,2 km/h (1 Bft) 97,87 %
25.04.2026 20:18 16,7 °C 15,0 °C 11,7 °C 48 % 1020,1 hPa 0,0 l/m² 0 min 16 W/m² 6,4 km/h (2 Bft) 98,15 %
25.04.2026 20:20 16,7 °C 15,0 °C 11,7 °C 48 % 1020,1 hPa 0,0 l/m² 0 min 15 W/m² 6,4 km/h (2 Bft) 93,48 %
25.04.2026 20:22 16,7 °C 15,0 °C 11,1 °C 48 % 1020,0 hPa 0,0 l/m² 0 min 14 W/m² 3,2 km/h (1 Bft) 100,00 %
25.04.2026 20:24 16,6 °C 15,0 °C 11,1 °C 49 % 1020,1 hPa 0,0 l/m² 0 min 14 W/m² 3,2 km/h (1 Bft) 95,92 %
25.04.2026 20:26 16,6 °C 14,4 °C 11,1 °C 50 % 1020,1 hPa 0,0 l/m² 0 min 12 W/m² 0,0 km/h (0 Bft) 95,74 %
25.04.2026 20:28 16,6 °C 14,4 °C 11,1 °C 50 % 1020,1 hPa 0,0 l/m² 0 min 12 W/m² 3,2 km/h (1 Bft) 97,87 %
25.04.2026 20:30 16,5 °C 14,4 °C 11,1 °C 50 % 1020,1 hPa 0,0 l/m² 0 min 11 W/m² 3,2 km/h (1 Bft) 95,74 %
25.04.2026 20:32 16,4 °C 14,4 °C 11,1 °C 50 % 1020,1 hPa 0,0 l/m² 0 min 10 W/m² 3,2 km/h (1 Bft) 97,87 %
25.04.2026 20:34 16,4 °C 14,4 °C 10,6 °C 50 % 1020,1 hPa 0,0 l/m² 0 min 9 W/m² 3,2 km/h (1 Bft) 91,49 %
25.04.2026 20:36 16,3 °C 13,9 °C 10,6 °C 50 % 1020,1 hPa 0,0 l/m² 0 min 9 W/m² 3,2 km/h (1 Bft) 97,87 %
25.04.2026 20:38 16,3 °C 13,9 °C 10,6 °C 50 % 1020,1 hPa 0,0 l/m² 0 min 7 W/m² 3,2 km/h (1 Bft) 97,87 %
25.04.2026 20:40 16,2 °C 13,9 °C 10,6 °C 50 % 1020,2 hPa 0,0 l/m² 0 min 7 W/m² 3,2 km/h (1 Bft) 95,92 %
25.04.2026 20:42 16,2 °C 13,9 °C 10,6 °C 52 % 1020,2 hPa 0,0 l/m² 0 min 5 W/m² 0,0 km/h (0 Bft) 96,00 %
25.04.2026 20:44 16,1 °C 13,9 °C 10,0 °C 52 % 1020,2 hPa 0,0 l/m² 0 min 5 W/m² 3,2 km/h (1 Bft) 97,87 %
25.04.2026 20:46 16,1 °C 13,3 °C 10,0 °C 52 % 1020,2 hPa 0,0 l/m² 0 min 4 W/m² 3,2 km/h (1 Bft) 93,62 %
25.04.2026 20:48 16,0 °C 13,3 °C 10,0 °C 53 % 1020,3 hPa 0,0 l/m² 0 min 0 W/m² 3,2 km/h (1 Bft) 96,15 %
25.04.2026 20:50 15,9 °C 13,3 °C 9,4 °C 54 % 1020,3 hPa 0,0 l/m² 0 min 0 W/m² 0,0 km/h (0 Bft) 93,55 %
25.04.2026 20:52 15,8 °C 12,8 °C 9,4 °C 54 % 1020,3 hPa 0,0 l/m² 0 min 0 W/m² 3,2 km/h (1 Bft) 95,74 %
25.04.2026 20:54 15,8 °C 12,8 °C 9,4 °C 55 % 1020,4 hPa 0,0 l/m² 0 min 0 W/m² 3,2 km/h (1 Bft) 95,74 %
25.04.2026 20:56 15,7 °C 12,8 °C 9,4 °C 54 % 1020,4 hPa 0,0 l/m² 0 min 0 W/m² 3,2 km/h (1 Bft) 95,65 %
25.04.2026 20:58 15,6 °C 12,8 °C 9,4 °C 53 % 1020,4 hPa 0,0 l/m² 0 min 0 W/m² 0,0 km/h (0 Bft) 93,62 %
25.04.2026 21:00 15,5 °C 12,8 °C 9,4 °C 54 % 1020,4 hPa 0,0 l/m² 0 min 0 W/m² 3,2 km/h (1 Bft) 95,74 %
25.04.2026 21:02 15,3 °C 12,8 °C 9,4 °C 54 % 1020,4 hPa 0,0 l/m² 0 min 0 W/m² 3,2 km/h (1 Bft) 93,62 %
25.04.2026 21:04 15,3 °C 12,8 °C 9,4 °C 54 % 1020,5 hPa 0,0 l/m² 0 min 0 W/m² 0,0 km/h (0 Bft) 93,62 %
25.04.2026 21:06 15,2 °C 12,8 °C 9,4 °C 55 % 1020,5 hPa 0,0 l/m² 0 min 0 W/m² 3,2 km/h (1 Bft) 94,92 %
25.04.2026 21:08 15,1 °C 12,8 °C 8,9 °C 55 % 1020,5 hPa 0,0 l/m² 0 min 0 W/m² 0,0 km/h (0 Bft) 100,00 %
25.04.2026 21:10 15,1 °C 12,2 °C 8,9 °C 56 % 1020,6 hPa 0,0 l/m² 0 min 0 W/m² 0,0 km/h (0 Bft) 95,74 %
25.04.2026 21:12 15,0 °C 12,2 °C 8,9 °C 56 % 1020,6 hPa 0,0 l/m² 0 min 0 W/m² 0,0 km/h (0 Bft) 93,62 %
25.04.2026 21:14 14,9 °C 12,2 °C 8,9 °C 56 % 1020,5 hPa 0,0 l/m² 0 min 0 W/m² 0,0 km/h (0 Bft) 91,30 %
25.04.2026 21:16 14,8 °C 12,2 °C 8,9 °C 56 % 1020,6 hPa 0,0 l/m² 0 min 0 W/m² 0,0 km/h (0 Bft) 95,74 %
25.04.2026 21:18 14,8 °C 12,2 °C 8,3 °C 57 % 1020,6 hPa 0,0 l/m² 0 min 0 W/m² 3,2 km/h (1 Bft) 98,15 %
25.04.2026 21:20 14,7 °C 11,7 °C 8,3 °C 58 % 1020,6 hPa 0,0 l/m² 0 min 0 W/m² 0,0 km/h (0 Bft) 97,87 %
25.04.2026 21:22 14,6 °C 11,7 °C 8,3 °C 59 % 1020,6 hPa 0,0 l/m² 0 min 0 W/m² 0,0 km/h (0 Bft) 94,29 %
25.04.2026 21:24 14,6 °C 11,7 °C 8,3 °C 59 % 1020,6 hPa 0,0 l/m² 0 min 0 W/m² 0,0 km/h (0 Bft) 98,11 %
25.04.2026 21:26 14,4 °C 11,7 °C 8,3 °C 59 % 1020,6 hPa 0,0 l/m² 0 min 0 W/m² 0,0 km/h (0 Bft) 95,74 %
25.04.2026 21:28 14,3 °C 11,7 °C 8,3 °C 59 % 1020,6 hPa 0,0 l/m² 0 min 0 W/m² 0,0 km/h (0 Bft) 100,00 %
25.04.2026 21:30 14,3 °C 11,7 °C 8,3 °C 60 % 1020,6 hPa 0,0 l/m² 0 min 0 W/m² 0,0 km/h (0 Bft) 97,83 %
25.04.2026 21:32 14,3 °C 11,1 °C 7,8 °C 60 % 1020,6 hPa 0,0 l/m² 0 min 0 W/m² 0,0 km/h (0 Bft) 97,87 %
25.04.2026 21:34 14,2 °C 11,1 °C 7,8 °C 60 % 1020,6 hPa 0,0 l/m² 0 min 0 W/m² 0,0 km/h (0 Bft) 100,00 %
25.04.2026 21:36 14,1 °C 11,1 °C 7,8 °C 61 % 1020,7 hPa 0,0 l/m² 0 min 0 W/m² 0,0 km/h (0 Bft) 97,87 %
25.04.2026 21:38 14,1 °C 11,1 °C 7,8 °C 60 % 1020,7 hPa 0,0 l/m² 0 min 0 W/m² 0,0 km/h (0 Bft) 59,57 %
25.04.2026 21:40 13,9 °C 11,1 °C 7,8 °C 61 % 1020,7 hPa 0,0 l/m² 0 min 0 W/m² 0,0 km/h (0 Bft) 96,88 %
25.04.2026 21:42 13,9 °C 11,1 °C 7,8 °C 61 % 1020,7 hPa 0,0 l/m² 0 min 0 W/m² 0,0 km/h (0 Bft) 100,00 %
25.04.2026 21:44 13,8 °C 11,1 °C 7,8 °C 61 % 1020,7 hPa 0,0 l/m² 0 min 0 W/m² 0,0 km/h (0 Bft) 100,00 %
25.04.2026 21:46 13,7 °C 11,1 °C 7,8 °C 61 % 1020,7 hPa 0,0 l/m² 0 min 0 W/m² 3,2 km/h (1 Bft) 97,83 %
25.04.2026 21:48 13,7 °C 11,1 °C 7,8 °C 60 % 1020,7 hPa 0,0 l/m² 0 min 0 W/m² 3,2 km/h (1 Bft) 97,87 %
25.04.2026 21:50 13,6 °C 11,1 °C 7,8 °C 61 % 1020,8 hPa 0,0 l/m² 0 min 0 W/m² 0,0 km/h (0 Bft) 100,00 %
25.04.2026 21:52 13,5 °C 11,7 °C 7,8 °C 61 % 1020,8 hPa 0,0 l/m² 0 min 0 W/m² 3,2 km/h (1 Bft) 100,00 %
25.04.2026 21:54 13,4 °C 11,7 °C 7,8 °C 61 % 1020,8 hPa 0,0 l/m² 0 min 0 W/m² 3,2 km/h (1 Bft) 100,00 %
25.04.2026 21:56 13,3 °C 11,1 °C 7,8 °C 62 % 1020,8 hPa 0,0 l/m² 0 min 0 W/m² 0,0 km/h (0 Bft) 97,37 %
25.04.2026 21:58 13,3 °C 11,1 °C 7,8 °C 62 % 1020,8 hPa 0,0 l/m² 0 min 0 W/m² 0,0 km/h (0 Bft) 100,00 %
25.04.2026 22:00 13,2 °C 11,7 °C 7,8 °C 62 % 1020,9 hPa 0,0 l/m² 0 min 0 W/m² 6,4 km/h (2 Bft) 98,00 %
25.04.2026 22:02 13,2 °C 11,7 °C 7,8 °C 63 % 1020,9 hPa 0,0 l/m² 0 min 0 W/m² 6,4 km/h (2 Bft) 97,87 %
25.04.2026 22:04 13,1 °C 11,7 °C 8,3 °C 63 % 1020,9 hPa 0,0 l/m² 0 min 0 W/m² 3,2 km/h (1 Bft) 100,00 %
25.04.2026 22:06 13,1 °C 11,7 °C 8,3 °C 63 % 1020,9 hPa 0,0 l/m² 0 min 0 W/m² 3,2 km/h (1 Bft) 100,00 %
25.04.2026 22:08 13,0 °C 11,7 °C 8,3 °C 63 % 1020,9 hPa 0,0 l/m² 0 min 0 W/m² 3,2 km/h (1 Bft) 95,24 %
25.04.2026 22:10 12,9 °C 11,7 °C 8,3 °C 64 % 1020,9 hPa 0,0 l/m² 0 min 0 W/m² 3,2 km/h (1 Bft) 100,00 %
25.04.2026 22:12 12,9 °C 11,7 °C 7,8 °C 64 % 1021,0 hPa 0,0 l/m² 0 min 0 W/m² 6,4 km/h (2 Bft) 100,00 %
25.04.2026 22:14 12,8 °C 11,7 °C 7,8 °C 63 % 1020,9 hPa 0,0 l/m² 0 min 0 W/m² 3,2 km/h (1 Bft) 100,00 %
25.04.2026 22:16 12,8 °C 11,1 °C 7,8 °C 64 % 1021,0 hPa 0,0 l/m² 0 min 0 W/m² 3,2 km/h (1 Bft) 100,00 %
25.04.2026 22:18 12,8 °C 11,1 °C 7,8 °C 64 % 1021,1 hPa 0,0 l/m² 0 min 0 W/m² 6,4 km/h (2 Bft) 97,87 %
25.04.2026 22:20 12,7 °C 11,1 °C 7,8 °C 64 % 1021,1 hPa 0,0 l/m² 0 min 0 W/m² 3,2 km/h (1 Bft) 97,83 %
25.04.2026 22:22 12,7 °C 11,1 °C 7,8 °C 64 % 1021,1 hPa 0,0 l/m² 0 min 0 W/m² 6,4 km/h (2 Bft) 100,00 %
25.04.2026 22:24 12,7 °C 11,1 °C 7,8 °C 64 % 1021,1 hPa 0,0 l/m² 0 min 0 W/m² 0,0 km/h (0 Bft) 100,00 %
25.04.2026 22:26 12,6 °C 11,1 °C 7,8 °C 64 % 1021,1 hPa 0,0 l/m² 0 min 0 W/m² 0,0 km/h (0 Bft) 98,00 %
25.04.2026 22:28 12,6 °C 11,1 °C 7,8 °C 64 % 1021,2 hPa 0,0 l/m² 0 min 0 W/m² 0,0 km/h (0 Bft) 97,87 %
25.04.2026 22:30 12,6 °C 11,1 °C 7,8 °C 65 % 1021,1 hPa 0,0 l/m² 0 min 0 W/m² 3,2 km/h (1 Bft) 100,00 %
25.04.2026 22:32 12,5 °C 11,1 °C 7,8 °C 65 % 1021,1 hPa 0,0 l/m² 0 min 0 W/m² 3,2 km/h (1 Bft) 98,31 %
25.04.2026 22:34 12,4 °C 11,1 °C 7,8 °C 65 % 1021,1 hPa 0,0 l/m² 0 min 0 W/m² 3,2 km/h (1 Bft) 100,00 %
25.04.2026 22:36 12,4 °C 11,1 °C 7,8 °C 65 % 1021,2 hPa 0,0 l/m² 0 min 0 W/m² 0,0 km/h (0 Bft) 100,00 %
25.04.2026 22:38 12,4 °C 10,6 °C 7,8 °C 65 % 1021,2 hPa 0,0 l/m² 0 min 0 W/m² 0,0 km/h (0 Bft) 97,87 %
25.04.2026 22:40 12,3 °C 10,6 °C 7,2 °C 65 % 1021,2 hPa 0,0 l/m² 0 min 0 W/m² 0,0 km/h (0 Bft) 95,65 %
25.04.2026 22:42 12,3 °C 10,6 °C 7,2 °C 66 % 1021,2 hPa 0,0 l/m² 0 min 0 W/m² 0,0 km/h (0 Bft) 94,00 %
25.04.2026 22:44 12,3 °C 10,6 °C 7,2 °C 66 % 1021,3 hPa 0,0 l/m² 0 min 0 W/m² 0,0 km/h (0 Bft) 95,74 %
25.04.2026 22:46 12,3 °C 10,6 °C 7,2 °C 66 % 1021,3 hPa 0,0 l/m² 0 min 0 W/m² 3,2 km/h (1 Bft) 95,74 %
25.04.2026 22:48 12,2 °C 10,6 °C 7,2 °C 66 % 1021,3 hPa 0,0 l/m² 0 min 0 W/m² 3,2 km/h (1 Bft) 95,74 %
25.04.2026 22:50 12,2 °C 10,6 °C 7,2 °C 66 % 1021,3 hPa 0,0 l/m² 0 min 0 W/m² 0,0 km/h (0 Bft) 95,74 %
25.04.2026 22:52 12,2 °C 10,6 °C 7,2 °C 66 % 1021,4 hPa 0,0 l/m² 0 min 0 W/m² 0,0 km/h (0 Bft) 95,74 %
25.04.2026 22:54 12,1 °C 10,6 °C 7,2 °C 66 % 1021,4 hPa 0,0 l/m² 0 min 0 W/m² 0,0 km/h (0 Bft) 91,49 %
25.04.2026 22:56 12,1 °C 10,6 °C 7,2 °C 67 % 1021,5 hPa 0,0 l/m² 0 min 0 W/m² 0,0 km/h (0 Bft) 95,65 %
25.04.2026 22:58 12,1 °C 10,0 °C 7,2 °C 67 % 1021,5 hPa 0,0 l/m² 0 min 0 W/m² 0,0 km/h (0 Bft) 95,74 %
25.04.2026 23:00 12,1 °C 10,0 °C 6,7 °C 67 % 1021,5 hPa 0,0 l/m² 0 min 0 W/m² 0,0 km/h (0 Bft) 95,74 %
25.04.2026 23:02 12,0 °C 10,0 °C 6,7 °C 68 % 1021,5 hPa 0,0 l/m² 0 min 0 W/m² 0,0 km/h (0 Bft) 93,62 %
25.04.2026 23:04 12,0 °C 10,0 °C 6,7 °C 68 % 1021,5 hPa 0,0 l/m² 0 min 0 W/m² 0,0 km/h (0 Bft) 100,00 %
25.04.2026 23:06 11,9 °C 10,0 °C 6,7 °C 68 % 1021,5 hPa 0,0 l/m² 0 min 0 W/m² 0,0 km/h (0 Bft) 97,22 %
25.04.2026 23:08 11,9 °C 9,4 °C 6,7 °C 68 % 1021,5 hPa 0,0 l/m² 0 min 0 W/m² 0,0 km/h (0 Bft) 96,72 %
25.04.2026 23:10 11,9 °C 9,4 °C 6,7 °C 69 % 1021,5 hPa 0,0 l/m² 0 min 0 W/m² 0,0 km/h (0 Bft) 97,96 %
25.04.2026 23:12 11,8 °C 9,4 °C 6,7 °C 69 % 1021,5 hPa 0,0 l/m² 0 min 0 W/m² 0,0 km/h (0 Bft) 100,00 %
25.04.2026 23:14 11,8 °C 9,4 °C 6,7 °C 69 % 1021,5 hPa 0,0 l/m² 0 min 0 W/m² 0,0 km/h (0 Bft) 100,00 %
25.04.2026 23:16 11,7 °C 9,4 °C 6,1 °C 69 % 1021,5 hPa 0,0 l/m² 0 min 0 W/m² 0,0 km/h (0 Bft) 100,00 %
25.04.2026 23:18 11,7 °C 9,4 °C 6,1 °C 69 % 1021,5 hPa 0,0 l/m² 0 min 0 W/m² 0,0 km/h (0 Bft) 100,00 %
25.04.2026 23:20 11,7 °C 9,4 °C 6,1 °C 70 % 1021,6 hPa 0,0 l/m² 0 min 0 W/m² 0,0 km/h (0 Bft) 100,00 %
25.04.2026 23:22 11,6 °C 9,4 °C 6,1 °C 70 % 1021,5 hPa 0,0 l/m² 0 min 0 W/m² 0,0 km/h (0 Bft) 100,00 %
25.04.2026 23:24 11,6 °C 9,4 °C 6,1 °C 70 % 1021,6 hPa 0,0 l/m² 0 min 0 W/m² 0,0 km/h (0 Bft) 100,00 %
25.04.2026 23:26 11,5 °C 9,4 °C 6,1 °C 70 % 1021,5 hPa 0,0 l/m² 0 min 0 W/m² 0,0 km/h (0 Bft) 100,00 %
25.04.2026 23:28 11,4 °C 9,4 °C 6,1 °C 70 % 1021,6 hPa 0,0 l/m² 0 min 0 W/m² 0,0 km/h (0 Bft) 98,00 %
25.04.2026 23:30 11,4 °C 9,4 °C 6,1 °C 70 % 1021,6 hPa 0,0 l/m² 0 min 0 W/m² 0,0 km/h (0 Bft) 100,00 %
25.04.2026 23:32 11,3 °C 9,4 °C 6,1 °C 70 % 1021,6 hPa 0,0 l/m² 0 min 0 W/m² 0,0 km/h (0 Bft) 100,00 %
25.04.2026 23:34 11,3 °C 8,9 °C 6,1 °C 70 % 1021,6 hPa 0,0 l/m² 0 min 0 W/m² 0,0 km/h (0 Bft) 97,83 %
25.04.2026 23:36 11,2 °C 8,9 °C 6,1 °C 70 % 1021,6 hPa 0,0 l/m² 0 min 0 W/m² 0,0 km/h (0 Bft) 100,00 %
25.04.2026 23:38 11,2 °C 8,9 °C 6,1 °C 70 % 1021,6 hPa 0,0 l/m² 0 min 0 W/m² 0,0 km/h (0 Bft) 100,00 %
25.04.2026 23:40 11,1 °C 8,9 °C 6,1 °C 70 % 1021,7 hPa 0,0 l/m² 0 min 0 W/m² 0,0 km/h (0 Bft) 100,00 %
25.04.2026 23:42 11,1 °C 8,9 °C 6,1 °C 70 % 1021,7 hPa 0,0 l/m² 0 min 0 W/m² 0,0 km/h (0 Bft) 98,00 %
25.04.2026 23:44 11,0 °C 8,9 °C 6,1 °C 70 % 1021,6 hPa 0,0 l/m² 0 min 0 W/m² 0,0 km/h (0 Bft) 97,87 %
25.04.2026 23:46 10,9 °C 8,9 °C 6,1 °C 70 % 1021,7 hPa 0,0 l/m² 0 min 0 W/m² 3,2 km/h (1 Bft) 97,83 %
25.04.2026 23:48 10,9 °C 8,9 °C 6,1 °C 70 % 1021,7 hPa 0,0 l/m² 0 min 0 W/m² 3,2 km/h (1 Bft) 97,44 %
25.04.2026 23:50 10,8 °C 8,9 °C 6,1 °C 71 % 1021,7 hPa 0,0 l/m² 0 min 0 W/m² 0,0 km/h (0 Bft) 95,74 %
25.04.2026 23:52 10,8 °C 8,9 °C 6,1 °C 71 % 1021,7 hPa 0,0 l/m² 0 min 0 W/m² 0,0 km/h (0 Bft) 95,92 %
25.04.2026 23:54 10,7 °C 8,9 °C 6,1 °C 71 % 1021,7 hPa 0,0 l/m² 0 min 0 W/m² 0,0 km/h (0 Bft) 98,00 %
25.04.2026 23:56 10,7 °C 8,9 °C 6,1 °C 71 % 1021,7 hPa 0,0 l/m² 0 min 0 W/m² 0,0 km/h (0 Bft) 97,87 %
25.04.2026 23:58 10,6 °C 8,9 °C 6,1 °C 70 % 1021,8 hPa 0,0 l/m² 0 min 0 W/m² 0,0 km/h (0 Bft) 97,87 %
_ Min-Zeit 05:46 04:42 05:46 18:40 18:12 - - - 00:10 11:26
Minimum _ 5,2 °C 4,4 °C 1,1 °C 34 % 1019,4 hPa - - - 0,0 km/h (0 Bft) 38,24 %
_ Max-Zeit 17:12 14:52 13:32 08:40 11:30 00:00 10:32 11:16 18:58 00:02
Maximum _ 19,9 °C 27,2 °C 22,8 °C 97 % 1022,0 hPa 0,0 l/m² 2 min 912 W/m² 25,7 km/h
N-NW (4 Bft)
100,00 %
Durchschnitt _ 11,4 °C 12,9 °C 8,1 °C 73 % 1020,9 hPa #0,0 l/m² #8:12 h 422 W/m² 6,7 km/h (2 Bft) 97,21 %
© 2026 W. Hausmann